Osage River (Missouri), Saint Thomas (06926510)

StateMissouriLatestUnknown (23400 cfs)
RiverOsage RiverRatingObservedEstimated
Updated2020-08-07 12:45 (53 minutes ago)Flood - The river is flooding. Obstacles can be treacherous or deadly. The river should be avoided at this stage for casual trips and definitely for the inexperienced. Trips should be attempted only with protective gear and equipment.Flood(none)(none)
Discharge23400 cfs (median: 2350 cfs)High - The river is high and potentially dangerous, especially for the young and / or inexperienced. Normal stream obstacles are sometimes difficult to navigate. Extended distances can be attempted, but canoe travel may not be advisable.High(none)(none)
Height9.95 feetGood - Conditions are ideal for a canoe or kayak. Boats typically will drag on fewer than one-quarter of riffles, if at all, and portages are unnecessary or rare. Normal float lengths can be attempted without a problem.Good(none)(none)
TrendFalling (falling over 24 hours)Low - River is low but can still be floated. Some riffles are okay but most come with significant dragging and might need a portage. Float lengths should be reduced to accommodate low flow, dragging, and portages.Low(none)(none)
USGSExternal icon USGS Site (External icon Google Maps)Poor - River is too low to float comfortably. Most or all riffles will drag or must be portaged and some obstacles (such as slick shelf rock) cause undue problems. Avoid the river at this stage for casual paddling trips.Poor(none)(none)

Trending Data

Plot Image

Trips for Osage River (Missouri), Saint Thomas (06926510)

DateStartEndDistanceConditionDischargeHeightFishingDetails

A total of 0 rows are displayed.

Condition Descriptions

Fishing Conditions

Fish Species

Notes

Classic Trip List

The classic River Trips application is still available for use. It is updated with the new system using a data retrofit. It is no longer maintained. The original River Trips application is no longer updated (as of 1 Dec 2016) but can be checked for errors or for the condition of the data before it was converted to the new system.

Gauge Data Table

ObservationHeightDischargeMaximum
Discharge
Minimum
Discharge
Mean
Discharge
P05P10P20P25P50
(Median)
P75P80P90P95
2020-08-07 12:45 9.95 23400 65700 (2013) 512 (1997) 12700 556 825 1030 1170 2350 19500 25900 48900 63500
2020-08-07 11:45 10.40 24900 65700 (2013) 512 (1997) 12700 556 825 1030 1170 2350 19500 25900 48900 63500
2020-08-07 10:45 10.85 26500 65700 (2013) 512 (1997) 12700 556 825 1030 1170 2350 19500 25900 48900 63500
2020-08-07 09:45 11.23 27900 65700 (2013) 512 (1997) 12700 556 825 1030 1170 2350 19500 25900 48900 63500
2020-08-07 08:45 11.68 29500 65700 (2013) 512 (1997) 12700 556 825 1030 1170 2350 19500 25900 48900 63500
2020-08-07 07:45 12.03 30900 65700 (2013) 512 (1997) 12700 556 825 1030 1170 2350 19500 25900 48900 63500
2020-08-07 06:45 12.33 32000 65700 (2013) 512 (1997) 12700 556 825 1030 1170 2350 19500 25900 48900 63500
2020-08-07 05:45 12.59 33000 65700 (2013) 512 (1997) 12700 556 825 1030 1170 2350 19500 25900 48900 63500
2020-08-07 04:45 12.71 33500 65700 (2013) 512 (1997) 12700 556 825 1030 1170 2350 19500 25900 48900 63500
2020-08-07 03:45 12.78 33800 65700 (2013) 512 (1997) 12700 556 825 1030 1170 2350 19500 25900 48900 63500
2020-08-07 02:45 12.72 33500 65700 (2013) 512 (1997) 12700 556 825 1030 1170 2350 19500 25900 48900 63500
2020-08-07 01:45 12.62 33100 65700 (2013) 512 (1997) 12700 556 825 1030 1170 2350 19500 25900 48900 63500
2020-08-07 00:45 12.34 32100 65700 (2013) 512 (1997) 12700 556 825 1030 1170 2350 19500 25900 48900 63500
2020-08-06 23:45 12.29 31900 51200 (2019) 653 (1997) 11000 654 783 1230 1300 2280 21700 22900 35000 49200
2020-08-06 22:45 12.16 31400 51200 (2019) 653 (1997) 11000 654 783 1230 1300 2280 21700 22900 35000 49200
2020-08-06 21:45 11.94 30500 51200 (2019) 653 (1997) 11000 654 783 1230 1300 2280 21700 22900 35000 49200
2020-08-06 20:45 11.76 29800 51200 (2019) 653 (1997) 11000 654 783 1230 1300 2280 21700 22900 35000 49200
2020-08-06 19:45 11.56 29100 51200 (2019) 653 (1997) 11000 654 783 1230 1300 2280 21700 22900 35000 49200
2020-08-06 18:45 11.36 28300 51200 (2019) 653 (1997) 11000 654 783 1230 1300 2280 21700 22900 35000 49200
2020-08-06 17:45 11.14 27600 51200 (2019) 653 (1997) 11000 654 783 1230 1300 2280 21700 22900 35000 49200
2020-08-06 16:45 10.96 26900 51200 (2019) 653 (1997) 11000 654 783 1230 1300 2280 21700 22900 35000 49200
2020-08-06 15:45 10.80 26300 51200 (2019) 653 (1997) 11000 654 783 1230 1300 2280 21700 22900 35000 49200
2020-08-06 14:45 10.71 26000 51200 (2019) 653 (1997) 11000 654 783 1230 1300 2280 21700 22900 35000 49200
2020-08-06 13:45 10.70 26000 51200 (2019) 653 (1997) 11000 654 783 1230 1300 2280 21700 22900 35000 49200
2020-08-06 12:45 10.73 26100 51200 (2019) 653 (1997) 11000 654 783 1230 1300 2280 21700 22900 35000 49200
2020-08-06 11:45 10.88 26600 51200 (2019) 653 (1997) 11000 654 783 1230 1300 2280 21700 22900 35000 49200
2020-08-06 10:45 11.02 27100 51200 (2019) 653 (1997) 11000 654 783 1230 1300 2280 21700 22900 35000 49200
2020-08-06 09:45 11.15 27600 51200 (2019) 653 (1997) 11000 654 783 1230 1300 2280 21700 22900 35000 49200
2020-08-06 08:45 11.34 28300 51200 (2019) 653 (1997) 11000 654 783 1230 1300 2280 21700 22900 35000 49200
2020-08-06 07:45 11.53 29000 51200 (2019) 653 (1997) 11000 654 783 1230 1300 2280 21700 22900 35000 49200
2020-08-06 06:45 11.68 29500 51200 (2019) 653 (1997) 11000 654 783 1230 1300 2280 21700 22900 35000 49200
2020-08-06 05:45 11.63 29400 51200 (2019) 653 (1997) 11000 654 783 1230 1300 2280 21700 22900 35000 49200
2020-08-06 04:45 11.68 29500 51200 (2019) 653 (1997) 11000 654 783 1230 1300 2280 21700 22900 35000 49200
2020-08-06 03:45 11.51 28900 51200 (2019) 653 (1997) 11000 654 783 1230 1300 2280 21700 22900 35000 49200
2020-08-06 02:45 11.54 29000 51200 (2019) 653 (1997) 11000 654 783 1230 1300 2280 21700 22900 35000 49200
2020-08-06 01:45 11.47 28800 51200 (2019) 653 (1997) 11000 654 783 1230 1300 2280 21700 22900 35000 49200
2020-08-06 00:45 11.29 28100 51200 (2019) 653 (1997) 11000 654 783 1230 1300 2280 21700 22900 35000 49200
2020-08-05 23:45 11.10 27400 51300 (2019) 796 (2006) 10200 819 963 1110 1190 2520 15100 18800 34400 49300
2020-08-05 22:45 10.86 26500 51300 (2019) 796 (2006) 10200 819 963 1110 1190 2520 15100 18800 34400 49300
2020-08-05 21:45 10.54 25400 51300 (2019) 796 (2006) 10200 819 963 1110 1190 2520 15100 18800 34400 49300
2020-08-05 20:45 10.20 24200 51300 (2019) 796 (2006) 10200 819 963 1110 1190 2520 15100 18800 34400 49300
2020-08-05 19:45 9.81 22900 51300 (2019) 796 (2006) 10200 819 963 1110 1190 2520 15100 18800 34400 49300
2020-08-05 18:45 9.49 21600 51300 (2019) 796 (2006) 10200 819 963 1110 1190 2520 15100 18800 34400 49300
2020-08-05 17:45 9.16 20200 51300 (2019) 796 (2006) 10200 819 963 1110 1190 2520 15100 18800 34400 49300
2020-08-05 16:45 8.93 19200 51300 (2019) 796 (2006) 10200 819 963 1110 1190 2520 15100 18800 34400 49300
2020-08-05 15:45 8.84 18900 51300 (2019) 796 (2006) 10200 819 963 1110 1190 2520 15100 18800 34400 49300
2020-08-05 14:45 8.87 19000 51300 (2019) 796 (2006) 10200 819 963 1110 1190 2520 15100 18800 34400 49300
2020-08-05 13:45 9.04 19700 51300 (2019) 796 (2006) 10200 819 963 1110 1190 2520 15100 18800 34400 49300
2020-08-05 12:45 9.26 20600 51300 (2019) 796 (2006) 10200 819 963 1110 1190 2520 15100 18800 34400 49300
2020-08-05 11:45 9.58 22000 51300 (2019) 796 (2006) 10200 819 963 1110 1190 2520 15100 18800 34400 49300
2020-08-05 10:45 9.90 23200 51300 (2019) 796 (2006) 10200 819 963 1110 1190 2520 15100 18800 34400 49300
2020-08-05 09:45 10.26 24400 51300 (2019) 796 (2006) 10200 819 963 1110 1190 2520 15100 18800 34400 49300
2020-08-05 08:45 10.64 25800 51300 (2019) 796 (2006) 10200 819 963 1110 1190 2520 15100 18800 34400 49300
2020-08-05 07:45 11.00 27000 51300 (2019) 796 (2006) 10200 819 963 1110 1190 2520 15100 18800 34400 49300
2020-08-05 06:45 11.29 28100 51300 (2019) 796 (2006) 10200 819 963 1110 1190 2520 15100 18800 34400 49300
2020-08-05 05:45 11.53 29000 51300 (2019) 796 (2006) 10200 819 963 1110 1190 2520 15100 18800 34400 49300
2020-08-05 04:45 11.70 29600 51300 (2019) 796 (2006) 10200 819 963 1110 1190 2520 15100 18800 34400 49300
2020-08-05 03:45 11.71 29600 51300 (2019) 796 (2006) 10200 819 963 1110 1190 2520 15100 18800 34400 49300
2020-08-05 02:45 11.69 29600 51300 (2019) 796 (2006) 10200 819 963 1110 1190 2520 15100 18800 34400 49300
2020-08-05 01:45 11.56 29100 51300 (2019) 796 (2006) 10200 819 963 1110 1190 2520 15100 18800 34400 49300
2020-08-05 00:45 11.32 28200 51300 (2019) 796 (2006) 10200 819 963 1110 1190 2520 15100 18800 34400 49300
2020-08-04 23:45 11.05 27200 51300 (2019) 775 (1999) 10800 783 842 1040 1170 2750 15900 21700 35900 49500
2020-08-04 22:45 10.72 26000 51300 (2019) 775 (1999) 10800 783 842 1040 1170 2750 15900 21700 35900 49500
2020-08-04 21:45 10.29 24500 51300 (2019) 775 (1999) 10800 783 842 1040 1170 2750 15900 21700 35900 49500
2020-08-04 20:45 9.94 23300 51300 (2019) 775 (1999) 10800 783 842 1040 1170 2750 15900 21700 35900 49500
2020-08-04 19:45 9.54 21800 51300 (2019) 775 (1999) 10800 783 842 1040 1170 2750 15900 21700 35900 49500
2020-08-04 18:45 9.06 19800 51300 (2019) 775 (1999) 10800 783 842 1040 1170 2750 15900 21700 35900 49500
2020-08-04 17:45 8.69 18300 51300 (2019) 775 (1999) 10800 783 842 1040 1170 2750 15900 21700 35900 49500
2020-08-04 16:45 8.39 17100 51300 (2019) 775 (1999) 10800 783 842 1040 1170 2750 15900 21700 35900 49500
2020-08-04 15:45 8.16 16300 51300 (2019) 775 (1999) 10800 783 842 1040 1170 2750 15900 21700 35900 49500
2020-08-04 14:45 8.10 16000 51300 (2019) 775 (1999) 10800 783 842 1040 1170 2750 15900 21700 35900 49500
2020-08-04 13:45 8.16 16300 51300 (2019) 775 (1999) 10800 783 842 1040 1170 2750 15900 21700 35900 49500
2020-08-04 12:45 8.30 16800 51300 (2019) 775 (1999) 10800 783 842 1040 1170 2750 15900 21700 35900 49500
2020-08-04 11:45 8.51 17600 51300 (2019) 775 (1999) 10800 783 842 1040 1170 2750 15900 21700 35900 49500
2020-08-04 10:45 8.72 18400 51300 (2019) 775 (1999) 10800 783 842 1040 1170 2750 15900 21700 35900 49500
2020-08-04 09:45 8.96 19400 51300 (2019) 775 (1999) 10800 783 842 1040 1170 2750 15900 21700 35900 49500
2020-08-04 08:45 9.21 20400 51300 (2019) 775 (1999) 10800 783 842 1040 1170 2750 15900 21700 35900 49500
2020-08-04 07:45 9.43 21400 51300 (2019) 775 (1999) 10800 783 842 1040 1170 2750 15900 21700 35900 49500
2020-08-04 06:45 9.64 22200 51300 (2019) 775 (1999) 10800 783 842 1040 1170 2750 15900 21700 35900 49500
2020-08-04 05:45 9.76 22700 51300 (2019) 775 (1999) 10800 783 842 1040 1170 2750 15900 21700 35900 49500
2020-08-04 04:45 9.79 22800 51300 (2019) 775 (1999) 10800 783 842 1040 1170 2750 15900 21700 35900 49500
2020-08-04 03:45 9.73 22600 51300 (2019) 775 (1999) 10800 783 842 1040 1170 2750 15900 21700 35900 49500
2020-08-04 02:45 9.56 21900 51300 (2019) 775 (1999) 10800 783 842 1040 1170 2750 15900 21700 35900 49500
2020-08-04 01:45 9.22 20400 51300 (2019) 775 (1999) 10800 783 842 1040 1170 2750 15900 21700 35900 49500
2020-08-04 00:45 8.68 18200 51300 (2019) 775 (1999) 10800 783 842 1040 1170 2750 15900 21700 35900 49500
2020-08-03 23:45 7.92 15400 51400 (2019) 810 (1999) 11500 840 1030 1150 1390 3310 17800 21700 37700 49900
2020-08-03 22:45 7.03 12400 51400 (2019) 810 (1999) 11500 840 1030 1150 1390 3310 17800 21700 37700 49900
2020-08-03 21:45 5.98 9170 51400 (2019) 810 (1999) 11500 840 1030 1150 1390 3310 17800 21700 37700 49900
2020-08-03 20:45 4.69 5480 51400 (2019) 810 (1999) 11500 840 1030 1150 1390 3310 17800 21700 37700 49900
2020-08-03 19:45 3.51 2400 51400 (2019) 810 (1999) 11500 840 1030 1150 1390 3310 17800 21700 37700 49900
2020-08-03 18:45 3.04 1570 51400 (2019) 810 (1999) 11500 840 1030 1150 1390 3310 17800 21700 37700 49900
2020-08-03 17:45 2.99 1500 51400 (2019) 810 (1999) 11500 840 1030 1150 1390 3310 17800 21700 37700 49900
2020-08-03 16:45 3.00 1520 51400 (2019) 810 (1999) 11500 840 1030 1150 1390 3310 17800 21700 37700 49900
2020-08-03 15:45 3.03 1560 51400 (2019) 810 (1999) 11500 840 1030 1150 1390 3310 17800 21700 37700 49900
2020-08-03 14:45 3.07 1620 51400 (2019) 810 (1999) 11500 840 1030 1150 1390 3310 17800 21700 37700 49900
2020-08-03 13:45 3.10 1660 51400 (2019) 810 (1999) 11500 840 1030 1150 1390 3310 17800 21700 37700 49900
2020-08-03 12:45 3.14 1730 51400 (2019) 810 (1999) 11500 840 1030 1150 1390 3310 17800 21700 37700 49900
2020-08-03 11:45 3.19 1810 51400 (2019) 810 (1999) 11500 840 1030 1150 1390 3310 17800 21700 37700 49900
2020-08-03 10:45 3.25 1910 51400 (2019) 810 (1999) 11500 840 1030 1150 1390 3310 17800 21700 37700 49900
2020-08-03 09:45 3.30 2000 51400 (2019) 810 (1999) 11500 840 1030 1150 1390 3310 17800 21700 37700 49900
2020-08-03 08:45 3.37 2120 51400 (2019) 810 (1999) 11500 840 1030 1150 1390 3310 17800 21700 37700 49900
2020-08-03 07:45 3.43 2240 51400 (2019) 810 (1999) 11500 840 1030 1150 1390 3310 17800 21700 37700 49900
2020-08-03 06:45 3.51 2400 51400 (2019) 810 (1999) 11500 840 1030 1150 1390 3310 17800 21700 37700 49900
2020-08-03 05:45 3.59 2570 51400 (2019) 810 (1999) 11500 840 1030 1150 1390 3310 17800 21700 37700 49900
2020-08-03 04:45 3.67 2760 51400 (2019) 810 (1999) 11500 840 1030 1150 1390 3310 17800 21700 37700 49900
2020-08-03 03:45 3.75 2950 51400 (2019) 810 (1999) 11500 840 1030 1150 1390 3310 17800 21700 37700 49900
2020-08-03 02:45 3.83 3160 51400 (2019) 810 (1999) 11500 840 1030 1150 1390 3310 17800 21700 37700 49900
2020-08-03 01:45 3.91 3380 51400 (2019) 810 (1999) 11500 840 1030 1150 1390 3310 17800 21700 37700 49900
2020-08-03 00:45 3.99 3590 51400 (2019) 810 (1999) 11500 840 1030 1150 1390 3310 17800 21700 37700 49900
2020-08-02 23:45 4.07 3800 51500 (2019) 1040 (1997) 11400 1050 1130 1240 1430 3320 18300 25800 41700 50800
2020-08-02 22:45 4.12 3930 51500 (2019) 1040 (1997) 11400 1050 1130 1240 1430 3320 18300 25800 41700 50800
2020-08-02 21:45 4.10 3880 51500 (2019) 1040 (1997) 11400 1050 1130 1240 1430 3320 18300 25800 41700 50800
2020-08-02 20:45 3.95 3490 51500 (2019) 1040 (1997) 11400 1050 1130 1240 1430 3320 18300 25800 41700 50800
2020-08-02 19:45 3.79 3050 51500 (2019) 1040 (1997) 11400 1050 1130 1240 1430 3320 18300 25800 41700 50800
2020-08-02 18:45 3.66 2730 51500 (2019) 1040 (1997) 11400 1050 1130 1240 1430 3320 18300 25800 41700 50800
2020-08-02 17:45 3.59 2570 51500 (2019) 1040 (1997) 11400 1050 1130 1240 1430 3320 18300 25800 41700 50800
2020-08-02 16:45 3.64 2690 51500 (2019) 1040 (1997) 11400 1050 1130 1240 1430 3320 18300 25800 41700 50800
2020-08-02 15:45 3.69 2810 51500 (2019) 1040 (1997) 11400 1050 1130 1240 1430 3320 18300 25800 41700 50800
2020-08-02 14:45 3.73 2900 51500 (2019) 1040 (1997) 11400 1050 1130 1240 1430 3320 18300 25800 41700 50800
2020-08-02 13:45 3.77 3000 51500 (2019) 1040 (1997) 11400 1050 1130 1240 1430 3320 18300 25800 41700 50800
2020-08-02 12:45 3.81 3110 51500 (2019) 1040 (1997) 11400 1050 1130 1240 1430 3320 18300 25800 41700 50800
2020-08-02 11:45 3.83 3160 51500 (2019) 1040 (1997) 11400 1050 1130 1240 1430 3320 18300 25800 41700 50800
2020-08-02 10:45 3.85 3210 51500 (2019) 1040 (1997) 11400 1050 1130 1240 1430 3320 18300 25800 41700 50800
2020-08-02 09:45 3.88 3290 51500 (2019) 1040 (1997) 11400 1050 1130 1240 1430 3320 18300 25800 41700 50800
2020-08-02 08:45 3.89 3320 51500 (2019) 1040 (1997) 11400 1050 1130 1240 1430 3320 18300 25800 41700 50800
2020-08-02 07:45 3.91 3380 51500 (2019) 1040 (1997) 11400 1050 1130 1240 1430 3320 18300 25800 41700 50800
2020-08-02 06:45 3.94 3460 51500 (2019) 1040 (1997) 11400 1050 1130 1240 1430 3320 18300 25800 41700 50800
2020-08-02 05:45 3.97 3540 51500 (2019) 1040 (1997) 11400 1050 1130 1240 1430 3320 18300 25800 41700 50800
2020-08-02 04:45 4.00 3610 51500 (2019) 1040 (1997) 11400 1050 1130 1240 1430 3320 18300 25800 41700 50800
2020-08-02 03:45 4.04 3720 51500 (2019) 1040 (1997) 11400 1050 1130 1240 1430 3320 18300 25800 41700 50800
2020-08-02 02:45 4.09 3850 51500 (2019) 1040 (1997) 11400 1050 1130 1240 1430 3320 18300 25800 41700 50800
2020-08-02 01:45 4.15 4010 51500 (2019) 1040 (1997) 11400 1050 1130 1240 1430 3320 18300 25800 41700 50800
2020-08-02 00:45 4.21 4170 51500 (2019) 1040 (1997) 11400 1050 1130 1240 1430 3320 18300 25800 41700 50800
2020-08-01 23:45 4.29 4380 51500 (2019) 499 (2000) 11300 592 1130 1360 1380 4170 15400 24900 44800 51300
2020-08-01 22:45 4.39 4650 51500 (2019) 499 (2000) 11300 592 1130 1360 1380 4170 15400 24900 44800 51300
2020-08-01 21:45 4.50 4960 51500 (2019) 499 (2000) 11300 592 1130 1360 1380 4170 15400 24900 44800 51300
2020-08-01 20:45 4.63 5310 51500 (2019) 499 (2000) 11300 592 1130 1360 1380 4170 15400 24900 44800 51300
2020-08-01 19:45 4.77 5710 51500 (2019) 499 (2000) 11300 592 1130 1360 1380 4170 15400 24900 44800 51300
2020-08-01 18:45 4.91 6100 51500 (2019) 499 (2000) 11300 592 1130 1360 1380 4170 15400 24900 44800 51300
2020-08-01 17:45 5.09 6610 51500 (2019) 499 (2000) 11300 592 1130 1360 1380 4170 15400 24900 44800 51300
2020-08-01 16:45 5.26 7080 51500 (2019) 499 (2000) 11300 592 1130 1360 1380 4170 15400 24900 44800 51300
2020-08-01 15:45 5.46 7640 51500 (2019) 499 (2000) 11300 592 1130 1360 1380 4170 15400 24900 44800 51300
2020-08-01 14:45 5.66 8230 51500 (2019) 499 (2000) 11300 592 1130 1360 1380 4170 15400 24900 44800 51300
2020-08-01 13:45 5.85 8790 51500 (2019) 499 (2000) 11300 592 1130 1360 1380 4170 15400 24900 44800 51300
2020-08-01 12:45 6.05 9370 51500 (2019) 499 (2000) 11300 592 1130 1360 1380 4170 15400 24900 44800 51300
2020-08-01 11:45 6.25 9950 51500 (2019) 499 (2000) 11300 592 1130 1360 1380 4170 15400 24900 44800 51300
2020-08-01 10:45 6.44 10500 51500 (2019) 499 (2000) 11300 592 1130 1360 1380 4170 15400 24900 44800 51300
2020-08-01 09:45 6.61 11000 51500 (2019) 499 (2000) 11300 592 1130 1360 1380 4170 15400 24900 44800 51300
2020-08-01 08:45 6.76 11500 51500 (2019) 499 (2000) 11300 592 1130 1360 1380 4170 15400 24900 44800 51300
2020-08-01 07:45 6.86 11800 51500 (2019) 499 (2000) 11300 592 1130 1360 1380 4170 15400 24900 44800 51300
2020-08-01 06:45 6.92 12000 51500 (2019) 499 (2000) 11300 592 1130 1360 1380 4170 15400 24900 44800 51300
2020-08-01 05:45 6.96 12100 51500 (2019) 499 (2000) 11300 592 1130 1360 1380 4170 15400 24900 44800 51300
2020-08-01 04:45 6.88 11900 51500 (2019) 499 (2000) 11300 592 1130 1360 1380 4170 15400 24900 44800 51300
2020-08-01 03:45 6.73 11400 51500 (2019) 499 (2000) 11300 592 1130 1360 1380 4170 15400 24900 44800 51300
2020-08-01 02:45 6.44 10500 51500 (2019) 499 (2000) 11300 592 1130 1360 1380 4170 15400 24900 44800 51300
2020-08-01 01:45 6.08 9460 51500 (2019) 499 (2000) 11300 592 1130 1360 1380 4170 15400 24900 44800 51300
2020-08-01 00:45 5.61 8080 51500 (2019) 499 (2000) 11300 592 1130 1360 1380 4170 15400 24900 44800 51300
2020-07-31 23:45 5.16 6810 51600 (2019) 682 (2000) 11900 701 903 1340 1490 1990 20400 27900 46100 51500
2020-07-31 22:45 4.78 5740 51600 (2019) 682 (2000) 11900 701 903 1340 1490 1990 20400 27900 46100 51500
2020-07-31 21:45 4.58 5180 51600 (2019) 682 (2000) 11900 701 903 1340 1490 1990 20400 27900 46100 51500
2020-07-31 20:45 4.57 5150 51600 (2019) 682 (2000) 11900 701 903 1340 1490 1990 20400 27900 46100 51500
2020-07-31 19:45 4.69 5480 51600 (2019) 682 (2000) 11900 701 903 1340 1490 1990 20400 27900 46100 51500
2020-07-31 18:45 4.85 5940 51600 (2019) 682 (2000) 11900 701 903 1340 1490 1990 20400 27900 46100 51500
2020-07-31 17:45 5.05 6490 51600 (2019) 682 (2000) 11900 701 903 1340 1490 1990 20400 27900 46100 51500
2020-07-31 16:45 5.25 7050 51600 (2019) 682 (2000) 11900 701 903 1340 1490 1990 20400 27900 46100 51500
2020-07-31 15:45 5.46 7640 51600 (2019) 682 (2000) 11900 701 903 1340 1490 1990 20400 27900 46100 51500
2020-07-31 14:45 5.70 8350 51600 (2019) 682 (2000) 11900 701 903 1340 1490 1990 20400 27900 46100 51500
2020-07-31 13:45 5.92 8990 51600 (2019) 682 (2000) 11900 701 903 1340 1490 1990 20400 27900 46100 51500
2020-07-31 12:45 6.15 9660 51600 (2019) 682 (2000) 11900 701 903 1340 1490 1990 20400 27900 46100 51500
2020-07-31 11:45 6.38 10300 51600 (2019) 682 (2000) 11900 701 903 1340 1490 1990 20400 27900 46100 51500
2020-07-31 10:45 6.62 11100 51600 (2019) 682 (2000) 11900 701 903 1340 1490 1990 20400 27900 46100 51500
2020-07-31 09:45 6.84 11800 51600 (2019) 682 (2000) 11900 701 903 1340 1490 1990 20400 27900 46100 51500
2020-07-31 08:45 7.03 12400 51600 (2019) 682 (2000) 11900 701 903 1340 1490 1990 20400 27900 46100 51500
2020-07-31 07:45 7.18 12800 51600 (2019) 682 (2000) 11900 701 903 1340 1490 1990 20400 27900 46100 51500
2020-07-31 06:45 7.26 13100 51600 (2019) 682 (2000) 11900 701 903 1340 1490 1990 20400 27900 46100 51500
2020-07-31 05:45 7.27 13100 51600 (2019) 682 (2000) 11900 701 903 1340 1490 1990 20400 27900 46100 51500
2020-07-31 04:45 7.21 12900 51600 (2019) 682 (2000) 11900 701 903 1340 1490 1990 20400 27900 46100 51500
2020-07-31 03:45 7.11 12600 51600 (2019) 682 (2000) 11900 701 903 1340 1490 1990 20400 27900 46100 51500
2020-07-31 02:45 6.95 12100 51600 (2019) 682 (2000) 11900 701 903 1340 1490 1990 20400 27900 46100 51500
2020-07-31 01:45 6.68 11300 51600 (2019) 682 (2000) 11900 701 903 1340 1490 1990 20400 27900 46100 51500
2020-07-31 00:45 6.29 10100 51600 (2019) 682 (2000) 11900 701 903 1340 1490 1990 20400 27900 46100 51500
2020-07-30 23:45 5.76 8530 51600 (2019) 840 (2005) 13600 879 1110 1170 1200 2240 29800 33700 47000 51500
2020-07-30 22:45 5.09 6610 51600 (2019) 840 (2005) 13600 879 1110 1170 1200 2240 29800 33700 47000 51500
2020-07-30 21:45 4.63 5310 51600 (2019) 840 (2005) 13600 879 1110 1170 1200 2240 29800 33700 47000 51500
2020-07-30 20:45 4.46 4850 51600 (2019) 840 (2005) 13600 879 1110 1170 1200 2240 29800 33700 47000 51500
2020-07-30 19:45 4.45 4820 51600 (2019) 840 (2005) 13600 879 1110 1170 1200 2240 29800 33700 47000 51500
2020-07-30 18:45 4.55 5100 51600 (2019) 840 (2005) 13600 879 1110 1170 1200 2240 29800 33700 47000 51500
2020-07-30 17:45 4.72 5560 51600 (2019) 840 (2005) 13600 879 1110 1170 1200 2240 29800 33700 47000 51500
2020-07-30 16:45 4.91 6100 51600 (2019) 840 (2005) 13600 879 1110 1170 1200 2240 29800 33700 47000 51500
2020-07-30 15:45 5.11 6670 51600 (2019) 840 (2005) 13600 879 1110 1170 1200 2240 29800 33700 47000 51500
2020-07-30 14:45 5.32 7250 51600 (2019) 840 (2005) 13600 879 1110 1170 1200 2240 29800 33700 47000 51500
2020-07-30 13:45 5.53 7850 51600 (2019) 840 (2005) 13600 879 1110 1170 1200 2240 29800 33700 47000 51500
2020-07-30 12:45 5.76 8530 51600 (2019) 840 (2005) 13600 879 1110 1170 1200 2240 29800 33700 47000 51500
2020-07-30 11:45 5.91 9830 51600 (2019) 840 (2005) 13600 879 1110 1170 1200 2240 29800 33700 47000 51500
2020-07-30 10:45 6.14 10300 51600 (2019) 840 (2005) 13600 879 1110 1170 1200 2240 29800 33700 47000 51500
2020-07-30 09:45 6.35 10900 51600 (2019) 840 (2005) 13600 879 1110 1170 1200 2240 29800 33700 47000 51500
2020-07-30 08:45 6.56 11500 51600 (2019) 840 (2005) 13600 879 1110 1170 1200 2240 29800 33700 47000 51500
2020-07-30 07:45 6.73 12000 51600 (2019) 840 (2005) 13600 879 1110 1170 1200 2240 29800 33700 47000 51500
2020-07-30 06:45 6.90 12600 51600 (2019) 840 (2005) 13600 879 1110 1170 1200 2240 29800 33700 47000 51500
2020-07-30 05:45 7.04 13000 51600 (2019) 840 (2005) 13600 879 1110 1170 1200 2240 29800 33700 47000 51500
2020-07-30 04:45 7.14 13300 51600 (2019) 840 (2005) 13600 879 1110 1170 1200 2240 29800 33700 47000 51500
2020-07-30 03:45 7.17 13400 51600 (2019) 840 (2005) 13600 879 1110 1170 1200 2240 29800 33700 47000 51500
2020-07-30 02:45 7.18 13400 51600 (2019) 840 (2005) 13600 879 1110 1170 1200 2240 29800 33700 47000 51500
2020-07-30 01:45 7.06 13000 51600 (2019) 840 (2005) 13600 879 1110 1170 1200 2240 29800 33700 47000 51500
2020-07-30 00:45 6.79 12200 51600 (2019) 840 (2005) 13600 879 1110 1170 1200 2240 29800 33700 47000 51500
2020-07-29 23:45 6.38 11000 51700 (2019) 635 (2006) 12900 697 1060 1170 1230 4260 24000 27300 46300 51600
2020-07-29 22:45 5.83 9480 51700 (2019) 635 (2006) 12900 697 1060 1170 1230 4260 24000 27300 46300 51600
2020-07-29 21:45 5.25 7890 51700 (2019) 635 (2006) 12900 697 1060 1170 1230 4260 24000 27300 46300 51600
2020-07-29 20:45 4.92 7010 51700 (2019) 635 (2006) 12900 697 1060 1170 1230 4260 24000 27300 46300 51600
2020-07-29 19:45 4.96 7120 51700 (2019) 635 (2006) 12900 697 1060 1170 1230 4260 24000 27300 46300 51600
2020-07-29 18:45 5.14 7590 51700 (2019) 635 (2006) 12900 697 1060 1170 1230 4260 24000 27300 46300 51600
2020-07-29 17:45 5.36 8200 51700 (2019) 635 (2006) 12900 697 1060 1170 1230 4260 24000 27300 46300 51600
2020-07-29 16:45 5.58 8800 51700 (2019) 635 (2006) 12900 697 1060 1170 1230 4260 24000 27300 46300 51600
2020-07-29 15:45 5.83 9480 51700 (2019) 635 (2006) 12900 697 1060 1170 1230 4260 24000 27300 46300 51600
2020-07-29 14:45 6.05 10100 51700 (2019) 635 (2006) 12900 697 1060 1170 1230 4260 24000 27300 46300 51600
2020-07-29 13:45 6.29 10800 51700 (2019) 635 (2006) 12900 697 1060 1170 1230 4260 24000 27300 46300 51600
2020-07-29 12:45 6.53 11500 51700 (2019) 635 (2006) 12900 697 1060 1170 1230 4260 24000 27300 46300 51600
2020-07-29 11:45 6.75 12100 51700 (2019) 635 (2006) 12900 697 1060 1170 1230 4260 24000 27300 46300 51600
2020-07-29 10:45 6.97 12800 51700 (2019) 635 (2006) 12900 697 1060 1170 1230 4260 24000 27300 46300 51600
2020-07-29 09:45 7.17 13400 51700 (2019) 635 (2006) 12900 697 1060 1170 1230 4260 24000 27300 46300 51600
2020-07-29 08:45 7.37 14000 51700 (2019) 635 (2006) 12900 697 1060 1170 1230 4260 24000 27300 46300 51600
2020-07-29 07:45 7.52 14500 51700 (2019) 635 (2006) 12900 697 1060 1170 1230 4260 24000 27300 46300 51600
2020-07-29 06:45 7.62 14800 51700 (2019) 635 (2006) 12900 697 1060 1170 1230 4260 24000 27300 46300 51600
2020-07-29 05:45 7.69 15100 51700 (2019) 635 (2006) 12900 697 1060 1170 1230 4260 24000 27300 46300 51600
2020-07-29 04:45 7.69 15100 51700 (2019) 635 (2006) 12900 697 1060 1170 1230 4260 24000 27300 46300 51600
2020-07-29 03:45 7.55 14600 51700 (2019) 635 (2006) 12900 697 1060 1170 1230 4260 24000 27300 46300 51600
2020-07-29 02:45 7.24 13600 51700 (2019) 635 (2006) 12900 697 1060 1170 1230 4260 24000 27300 46300 51600
2020-07-29 01:45 6.75 12100 51700 (2019) 635 (2006) 12900 697 1060 1170 1230 4260 24000 27300 46300 51600
2020-07-29 00:45 6.07 10100 51700 (2019) 635 (2006) 12900 697 1060 1170 1230 4260 24000 27300 46300 51600
2020-07-28 23:45 5.18 7700 51700 (2019) 853 (2006) 12300 880 1040 1180 1380 3720 18400 27600 48800 51700
2020-07-28 22:45 4.21 5150 51700 (2019) 853 (2006) 12300 880 1040 1180 1380 3720 18400 27600 48800 51700
2020-07-28 21:45 2.98 2180 51700 (2019) 853 (2006) 12300 880 1040 1180 1380 3720 18400 27600 48800 51700
2020-07-28 20:45 3.13 2480 51700 (2019) 853 (2006) 12300 880 1040 1180 1380 3720 18400 27600 48800 51700
2020-07-28 19:45 3.21 2650 51700 (2019) 853 (2006) 12300 880 1040 1180 1380 3720 18400 27600 48800 51700
2020-07-28 18:45 3.27 2790 51700 (2019) 853 (2006) 12300 880 1040 1180 1380 3720 18400 27600 48800 51700
2020-07-28 17:45 3.32 2900 51700 (2019) 853 (2006) 12300 880 1040 1180 1380 3720 18400 27600 48800 51700
2020-07-28 16:45 3.38 3050 51700 (2019) 853 (2006) 12300 880 1040 1180 1380 3720 18400 27600 48800 51700
2020-07-28 15:45 3.46 3250 51700 (2019) 853 (2006) 12300 880 1040 1180 1380 3720 18400 27600 48800 51700
2020-07-28 14:45 3.54 3460 51700 (2019) 853 (2006) 12300 880 1040 1180 1380 3720 18400 27600 48800 51700
2020-07-28 13:45 3.61 3630 51700 (2019) 853 (2006) 12300 880 1040 1180 1380 3720 18400 27600 48800 51700
2020-07-28 12:45 3.66 3750 51700 (2019) 853 (2006) 12300 880 1040 1180 1380 3720 18400 27600 48800 51700
2020-07-28 11:45 3.70 3850 51700 (2019) 853 (2006) 12300 880 1040 1180 1380 3720 18400 27600 48800 51700
2020-07-28 10:45 3.74 3950 51700 (2019) 853 (2006) 12300 880 1040 1180 1380 3720 18400 27600 48800 51700
2020-07-28 09:45 3.75 3980 51700 (2019) 853 (2006) 12300 880 1040 1180 1380 3720 18400 27600 48800 51700
2020-07-28 08:45 3.75 3980 51700 (2019) 853 (2006) 12300 880 1040 1180 1380 3720 18400 27600 48800 51700
2020-07-28 07:45 3.73 3930 51700 (2019) 853 (2006) 12300 880 1040 1180 1380 3720 18400 27600 48800 51700
2020-07-28 06:45 3.67 3780 51700 (2019) 853 (2006) 12300 880 1040 1180 1380 3720 18400 27600 48800 51700
2020-07-28 05:45 3.57 3540 51700 (2019) 853 (2006) 12300 880 1040 1180 1380 3720 18400 27600 48800 51700
2020-07-28 04:45 3.42 3150 51700 (2019) 853 (2006) 12300 880 1040 1180 1380 3720 18400 27600 48800 51700
2020-07-28 03:45 3.22 2670 51700 (2019) 853 (2006) 12300 880 1040 1180 1380 3720 18400 27600 48800 51700
2020-07-28 02:45 3.01 2240 51700 (2019) 853 (2006) 12300 880 1040 1180 1380 3720 18400 27600 48800 51700
2020-07-28 01:45 2.82 1890 51700 (2019) 853 (2006) 12300 880 1040 1180 1380 3720 18400 27600 48800 51700
2020-07-28 00:45 2.71 1710 51700 (2019) 853 (2006) 12300 880 1040 1180 1380 3720 18400 27600 48800 51700
2020-07-27 23:45 2.66 1630 63600 (1998) 695 (2006) 13200 726 964 1170 1280 5660 12700 26900 52000 61900
2020-07-27 22:45 2.66 1630 63600 (1998) 695 (2006) 13200 726 964 1170 1280 5660 12700 26900 52000 61900
2020-07-27 21:45 2.66 1630 63600 (1998) 695 (2006) 13200 726 964 1170 1280 5660 12700 26900 52000 61900
2020-07-27 20:45 2.66 1630 63600 (1998) 695 (2006) 13200 726 964 1170 1280 5660 12700 26900 52000 61900
2020-07-27 19:45 2.66 1630 63600 (1998) 695 (2006) 13200 726 964 1170 1280 5660 12700 26900 52000 61900
2020-07-27 18:45 2.66 1630 63600 (1998) 695 (2006) 13200 726 964 1170 1280 5660 12700 26900 52000 61900
2020-07-27 17:45 2.66 1630 63600 (1998) 695 (2006) 13200 726 964 1170 1280 5660 12700 26900 52000 61900
2020-07-27 16:45 2.65 1620 63600 (1998) 695 (2006) 13200 726 964 1170 1280 5660 12700 26900 52000 61900
2020-07-27 15:45 2.65 1620 63600 (1998) 695 (2006) 13200 726 964 1170 1280 5660 12700 26900 52000 61900
2020-07-27 14:45 2.64 1600 63600 (1998) 695 (2006) 13200 726 964 1170 1280 5660 12700 26900 52000 61900
2020-07-27 13:45 2.64 1600 63600 (1998) 695 (2006) 13200 726 964 1170 1280 5660 12700 26900 52000 61900
2020-07-27 12:45 2.66 1630 63600 (1998) 695 (2006) 13200 726 964 1170 1280 5660 12700 26900 52000 61900
2020-07-27 11:45 2.65 1620 63600 (1998) 695 (2006) 13200 726 964 1170 1280 5660 12700 26900 52000 61900
2020-07-27 10:45 2.64 1600 63600 (1998) 695 (2006) 13200 726 964 1170 1280 5660 12700 26900 52000 61900
2020-07-27 09:45 2.63 1590 63600 (1998) 695 (2006) 13200 726 964 1170 1280 5660 12700 26900 52000 61900
2020-07-27 08:45 2.63 1590 63600 (1998) 695 (2006) 13200 726 964 1170 1280 5660 12700 26900 52000 61900
2020-07-27 07:45 2.63 1590 63600 (1998) 695 (2006) 13200 726 964 1170 1280 5660 12700 26900 52000 61900
2020-07-27 06:45 2.63 1590 63600 (1998) 695 (2006) 13200 726 964 1170 1280 5660 12700 26900 52000 61900
2020-07-27 05:45 2.63 1590 63600 (1998) 695 (2006) 13200 726 964 1170 1280 5660 12700 26900 52000 61900
2020-07-27 04:45 2.65 1620 63600 (1998) 695 (2006) 13200 726 964 1170 1280 5660 12700 26900 52000 61900
2020-07-27 03:45 2.66 1630 63600 (1998) 695 (2006) 13200 726 964 1170 1280 5660 12700 26900 52000 61900
2020-07-27 02:45 2.68 1660 63600 (1998) 695 (2006) 13200 726 964 1170 1280 5660 12700 26900 52000 61900
2020-07-27 01:45 2.70 1700 63600 (1998) 695 (2006) 13200 726 964 1170 1280 5660 12700 26900 52000 61900
2020-07-27 00:45 2.71 1710 63600 (1998) 695 (2006) 13200 726 964 1170 1280 5660 12700 26900 52000 61900
2020-07-26 23:45 2.74 1760 51700 (2019) 905 (2003) 11900 934 1120 1210 1280 2770 16100 29500 47800 51600
2020-07-26 22:45 2.76 1790 51700 (2019) 905 (2003) 11900 934 1120 1210 1280 2770 16100 29500 47800 51600
2020-07-26 21:45 2.78 1820 51700 (2019) 905 (2003) 11900 934 1120 1210 1280 2770 16100 29500 47800 51600
2020-07-26 20:45 2.80 1860 51700 (2019) 905 (2003) 11900 934 1120 1210 1280 2770 16100 29500 47800 51600
2020-07-26 19:45 2.83 1910 51700 (2019) 905 (2003) 11900 934 1120 1210 1280 2770 16100 29500 47800 51600
2020-07-26 18:45 2.86 1960 51700 (2019) 905 (2003) 11900 934 1120 1210 1280 2770 16100 29500 47800 51600
2020-07-26 17:45 2.87 1980 51700 (2019) 905 (2003) 11900 934 1120 1210 1280 2770 16100 29500 47800 51600
2020-07-26 16:45 2.88 2000 51700 (2019) 905 (2003) 11900 934 1120 1210 1280 2770 16100 29500 47800 51600
2020-07-26 15:45 2.90 2030 51700 (2019) 905 (2003) 11900 934 1120 1210 1280 2770 16100 29500 47800 51600
2020-07-26 14:45 2.90 2030 51700 (2019) 905 (2003) 11900 934 1120 1210 1280 2770 16100 29500 47800 51600
2020-07-26 13:45 2.90 2030 51700 (2019) 905 (2003) 11900 934 1120 1210 1280 2770 16100 29500 47800 51600
2020-07-26 12:45 2.88 2000 51700 (2019) 905 (2003) 11900 934 1120 1210 1280 2770 16100 29500 47800 51600
2020-07-26 11:45 2.87 1980 51700 (2019) 905 (2003) 11900 934 1120 1210 1280 2770 16100 29500 47800 51600
2020-07-26 10:45 2.85 1940 51700 (2019) 905 (2003) 11900 934 1120 1210 1280 2770 16100 29500 47800 51600
2020-07-26 09:45 2.81 1880 51700 (2019) 905 (2003) 11900 934 1120 1210 1280 2770 16100 29500 47800 51600
2020-07-26 08:45 2.77 1810 51700 (2019) 905 (2003) 11900 934 1120 1210 1280 2770 16100 29500 47800 51600
2020-07-26 07:45 2.73 1740 51700 (2019) 905 (2003) 11900 934 1120 1210 1280 2770 16100 29500 47800 51600
2020-07-26 06:45 2.70 1700 51700 (2019) 905 (2003) 11900 934 1120 1210 1280 2770 16100 29500 47800 51600
2020-07-26 05:45 2.68 1660 51700 (2019) 905 (2003) 11900 934 1120 1210 1280 2770 16100 29500 47800 51600
2020-07-26 04:45 2.66 1630 51700 (2019) 905 (2003) 11900 934 1120 1210 1280 2770 16100 29500 47800 51600
2020-07-26 03:45 2.65 1620 51700 (2019) 905 (2003) 11900 934 1120 1210 1280 2770 16100 29500 47800 51600
2020-07-26 02:45 2.66 1630 51700 (2019) 905 (2003) 11900 934 1120 1210 1280 2770 16100 29500 47800 51600
2020-07-26 01:45 2.67 1650 51700 (2019) 905 (2003) 11900 934 1120 1210 1280 2770 16100 29500 47800 51600
2020-07-26 00:45 2.68 1660 51700 (2019) 905 (2003) 11900 934 1120 1210 1280 2770 16100 29500 47800 51600
2020-07-25 23:45 2.69 1680 51700 (2019) 665 (2000) 10000 699 902 1300 1390 3060 6350 16300 46200 51600
2020-07-25 22:45 2.70 1700 51700 (2019) 665 (2000) 10000 699 902 1300 1390 3060 6350 16300 46200 51600
2020-07-25 21:45 2.72 1730 51700 (2019) 665 (2000) 10000 699 902 1300 1390 3060 6350 16300 46200 51600
2020-07-25 20:45 2.74 1760 51700 (2019) 665 (2000) 10000 699 902 1300 1390 3060 6350 16300 46200 51600
2020-07-25 19:45 2.75 1780 51700 (2019) 665 (2000) 10000 699 902 1300 1390 3060 6350 16300 46200 51600
2020-07-25 18:45 2.77 1810 51700 (2019) 665 (2000) 10000 699 902 1300 1390 3060 6350 16300 46200 51600
2020-07-25 17:45 2.79 1840 51700 (2019) 665 (2000) 10000 699 902 1300 1390 3060 6350 16300 46200 51600
2020-07-25 16:45 2.81 1880 51700 (2019) 665 (2000) 10000 699 902 1300 1390 3060 6350 16300 46200 51600
2020-07-25 15:45 2.83 1910 51700 (2019) 665 (2000) 10000 699 902 1300 1390 3060 6350 16300 46200 51600
2020-07-25 14:45 2.85 1940 51700 (2019) 665 (2000) 10000 699 902 1300 1390 3060 6350 16300 46200 51600
2020-07-25 13:45 2.86 1960 51700 (2019) 665 (2000) 10000 699 902 1300 1390 3060 6350 16300 46200 51600
2020-07-25 12:45 2.87 1980 51700 (2019) 665 (2000) 10000 699 902 1300 1390 3060 6350 16300 46200 51600
2020-07-25 11:45 2.89 2010 51700 (2019) 665 (2000) 10000 699 902 1300 1390 3060 6350 16300 46200 51600
2020-07-25 10:45 2.90 2030 51700 (2019) 665 (2000) 10000 699 902 1300 1390 3060 6350 16300 46200 51600
2020-07-25 09:45 2.90 2030 51700 (2019) 665 (2000) 10000 699 902 1300 1390 3060 6350 16300 46200 51600
2020-07-25 08:45 2.89 2010 51700 (2019) 665 (2000) 10000 699 902 1300 1390 3060 6350 16300 46200 51600
2020-07-25 07:45 2.88 2000 51700 (2019) 665 (2000) 10000 699 902 1300 1390 3060 6350 16300 46200 51600
2020-07-25 06:45 2.87 1980 51700 (2019) 665 (2000) 10000 699 902 1300 1390 3060 6350 16300 46200 51600
2020-07-25 05:45 2.86 1960 51700 (2019) 665 (2000) 10000 699 902 1300 1390 3060 6350 16300 46200 51600
2020-07-25 04:45 2.85 1940 51700 (2019) 665 (2000) 10000 699 902 1300 1390 3060 6350 16300 46200 51600
2020-07-25 03:45 2.84 1930 51700 (2019) 665 (2000) 10000 699 902 1300 1390 3060 6350 16300 46200 51600
2020-07-25 02:45 2.83 1910 51700 (2019) 665 (2000) 10000 699 902 1300 1390 3060 6350 16300 46200 51600
2020-07-25 01:45 2.83 1910 51700 (2019) 665 (2000) 10000 699 902 1300 1390 3060 6350 16300 46200 51600
2020-07-25 00:45 2.84 1930 51700 (2019) 665 (2000) 10000 699 902 1300 1390 3060 6350 16300 46200 51600
2020-07-24 23:45 2.86 1960 52100 (2007) 480 (2000) 10900 550 1100 1480 1480 2430 9650 22400 46700 52000
2020-07-24 22:45 2.88 2000 52100 (2007) 480 (2000) 10900 550 1100 1480 1480 2430 9650 22400 46700 52000
2020-07-24 21:45 2.91 2050 52100 (2007) 480 (2000) 10900 550 1100 1480 1480 2430 9650 22400 46700 52000
2020-07-24 20:45 2.93 2090 52100 (2007) 480 (2000) 10900 550 1100 1480 1480 2430 9650 22400 46700 52000
2020-07-24 19:45 2.96 2140 52100 (2007) 480 (2000) 10900 550 1100 1480 1480 2430 9650 22400 46700 52000
2020-07-24 18:45 2.99 2200 52100 (2007) 480 (2000) 10900 550 1100 1480 1480 2430 9650 22400 46700 52000
2020-07-24 17:45 3.02 2260 52100 (2007) 480 (2000) 10900 550 1100 1480 1480 2430 9650 22400 46700 52000
2020-07-24 16:45 3.04 2300 52100 (2007) 480 (2000) 10900 550 1100 1480 1480 2430 9650 22400 46700 52000
2020-07-24 15:45 3.07 2360 52100 (2007) 480 (2000) 10900 550 1100 1480 1480 2430 9650 22400 46700 52000
2020-07-24 14:45 3.10 2420 52100 (2007) 480 (2000) 10900 550 1100 1480 1480 2430 9650 22400 46700 52000
2020-07-24 13:45 3.13 2480 52100 (2007) 480 (2000) 10900 550 1100 1480 1480 2430 9650 22400 46700 52000
2020-07-24 12:45 3.16 2540 52100 (2007) 480 (2000) 10900 550 1100 1480 1480 2430 9650 22400 46700 52000
2020-07-24 11:45 3.20 2630 52100 (2007) 480 (2000) 10900 550 1100 1480 1480 2430 9650 22400 46700 52000
2020-07-24 10:45 3.24 2720 52100 (2007) 480 (2000) 10900 550 1100 1480 1480 2430 9650 22400 46700 52000
2020-07-24 09:45 3.29 2830 52100 (2007) 480 (2000) 10900 550 1100 1480 1480 2430 9650 22400 46700 52000
2020-07-24 08:45 3.35 2980 52100 (2007) 480 (2000) 10900 550 1100 1480 1480 2430 9650 22400 46700 52000
2020-07-24 07:45 3.40 3100 52100 (2007) 480 (2000) 10900 550 1100 1480 1480 2430 9650 22400 46700 52000
2020-07-24 06:45 3.47 3280 52100 (2007) 480 (2000) 10900 550 1100 1480 1480 2430 9650 22400 46700 52000
2020-07-24 05:45 3.56 3510 52100 (2007) 480 (2000) 10900 550 1100 1480 1480 2430 9650 22400 46700 52000
2020-07-24 04:45 3.64 3700 52100 (2007) 480 (2000) 10900 550 1100 1480 1480 2430 9650 22400 46700 52000
2020-07-24 03:45 3.74 3950 52100 (2007) 480 (2000) 10900 550 1100 1480 1480 2430 9650 22400 46700 52000
2020-07-24 02:45 3.85 4230 52100 (2007) 480 (2000) 10900 550 1100 1480 1480 2430 9650 22400 46700 52000
2020-07-24 01:45 3.98 4550 52100 (2007) 480 (2000) 10900 550 1100 1480 1480 2430 9650 22400 46700 52000
2020-07-24 00:45 4.10 4870 52100 (2007) 480 (2000) 10900 550 1100 1480 1480 2430 9650 22400 46700 52000
2020-07-23 23:45 4.25 5250 51900 (2007) 653 (2000) 13100 720 1130 1380 1560 7050 16600 26900 46900 51900
2020-07-23 22:45 4.40 5640 51900 (2007) 653 (2000) 13100 720 1130 1380 1560 7050 16600 26900 46900 51900
2020-07-23 21:45 4.56 6070 51900 (2007) 653 (2000) 13100 720 1130 1380 1560 7050 16600 26900 46900 51900
2020-07-23 20:45 4.73 6510 51900 (2007) 653 (2000) 13100 720 1130 1380 1560 7050 16600 26900 46900 51900
2020-07-23 19:45 4.90 6960 51900 (2007) 653 (2000) 13100 720 1130 1380 1560 7050 16600 26900 46900 51900
2020-07-23 18:45 5.07 7400 51900 (2007) 653 (2000) 13100 720 1130 1380 1560 7050 16600 26900 46900 51900
2020-07-23 17:45 5.24 7860 51900 (2007) 653 (2000) 13100 720 1130 1380 1560 7050 16600 26900 46900 51900
2020-07-23 16:45 5.40 8310 51900 (2007) 653 (2000) 13100 720 1130 1380 1560 7050 16600 26900 46900 51900
2020-07-23 15:45 5.56 8750 51900 (2007) 653 (2000) 13100 720 1130 1380 1560 7050 16600 26900 46900 51900
2020-07-23 14:45 5.70 9130 51900 (2007) 653 (2000) 13100 720 1130 1380 1560 7050 16600 26900 46900 51900
2020-07-23 13:45 5.82 9450 51900 (2007) 653 (2000) 13100 720 1130 1380 1560 7050 16600 26900 46900 51900
2020-07-23 12:45 5.91 9700 51900 (2007) 653 (2000) 13100 720 1130 1380 1560 7050 16600 26900 46900 51900
2020-07-23 11:45 5.94 9780 51900 (2007) 653 (2000) 13100 720 1130 1380 1560 7050 16600 26900 46900 51900
2020-07-23 10:45 5.93 9750 51900 (2007) 653 (2000) 13100 720 1130 1380 1560 7050 16600 26900 46900 51900
2020-07-23 09:45 5.80 9400 51900 (2007) 653 (2000) 13100 720 1130 1380 1560 7050 16600 26900 46900 51900
2020-07-23 08:45 5.64 8960 51900 (2007) 653 (2000) 13100 720 1130 1380 1560 7050 16600 26900 46900 51900
2020-07-23 07:45 5.37 8220 51900 (2007) 653 (2000) 13100 720 1130 1380 1560 7050 16600 26900 46900 51900
2020-07-23 06:45 5.04 7320 51900 (2007) 653 (2000) 13100 720 1130 1380 1560 7050 16600 26900 46900 51900
2020-07-23 05:45 4.75 6570 51900 (2007) 653 (2000) 13100 720 1130 1380 1560 7050 16600 26900 46900 51900
2020-07-23 04:45 4.61 6200 51900 (2007) 653 (2000) 13100 720 1130 1380 1560 7050 16600 26900 46900 51900
2020-07-23 03:45 4.61 6200 51900 (2007) 653 (2000) 13100 720 1130 1380 1560 7050 16600 26900 46900 51900
2020-07-23 02:45 4.66 6330 51900 (2007) 653 (2000) 13100 720 1130 1380 1560 7050 16600 26900 46900 51900
2020-07-23 01:45 4.72 6490 51900 (2007) 653 (2000) 13100 720 1130 1380 1560 7050 16600 26900 46900 51900
2020-07-23 00:45 4.78 6650 51900 (2007) 653 (2000) 13100 720 1130 1380 1560 7050 16600 26900 46900 51900
2020-07-22 23:45 4.87 6890 51500 (2019) 1280 (2012) 13600 1300 1450 1840 2120 8020 15500 28000 47700 51500
2020-07-22 22:45 4.97 7140 51500 (2019) 1280 (2012) 13600 1300 1450 1840 2120 8020 15500 28000 47700 51500
2020-07-22 21:45 5.10 7480 51500 (2019) 1280 (2012) 13600 1300 1450 1840 2120 8020 15500 28000 47700 51500
2020-07-22 20:45 5.29 8000 51500 (2019) 1280 (2012) 13600 1300 1450 1840 2120 8020 15500 28000 47700 51500
2020-07-22 19:45 5.49 8560 51500 (2019) 1280 (2012) 13600 1300 1450 1840 2120 8020 15500 28000 47700 51500
2020-07-22 18:45 5.72 9180 51500 (2019) 1280 (2012) 13600 1300 1450 1840 2120 8020 15500 28000 47700 51500
2020-07-22 17:45 5.99 9910 51500 (2019) 1280 (2012) 13600 1300 1450 1840 2120 8020 15500 28000 47700 51500
2020-07-22 16:45 6.27 10700 51500 (2019) 1280 (2012) 13600 1300 1450 1840 2120 8020 15500 28000 47700 51500
2020-07-22 15:45 6.57 11600 51500 (2019) 1280 (2012) 13600 1300 1450 1840 2120 8020 15500 28000 47700 51500
2020-07-22 14:45 6.86 12400 51500 (2019) 1280 (2012) 13600 1300 1450 1840 2120 8020 15500 28000 47700 51500
2020-07-22 13:45 7.18 13400 51500 (2019) 1280 (2012) 13600 1300 1450 1840 2120 8020 15500 28000 47700 51500
2020-07-22 12:45 7.47 14400 51500 (2019) 1280 (2012) 13600 1300 1450 1840 2120 8020 15500 28000 47700 51500
2020-07-22 11:45 7.79 15400 51500 (2019) 1280 (2012) 13600 1300 1450 1840 2120 8020 15500 28000 47700 51500
2020-07-22 10:45 8.10 16500 51500 (2019) 1280 (2012) 13600 1300 1450 1840 2120 8020 15500 28000 47700 51500
2020-07-22 09:45 8.37 17400 51500 (2019) 1280 (2012) 13600 1300 1450 1840 2120 8020 15500 28000 47700 51500
2020-07-22 08:45 8.62 18300 51500 (2019) 1280 (2012) 13600 1300 1450 1840 2120 8020 15500 28000 47700 51500
2020-07-22 07:45 8.88 19300 51500 (2019) 1280 (2012) 13600 1300 1450 1840 2120 8020 15500 28000 47700 51500
2020-07-22 06:45 9.06 20000 51500 (2019) 1280 (2012) 13600 1300 1450 1840 2120 8020 15500 28000 47700 51500
2020-07-22 05:45 9.18 20500 51500 (2019) 1280 (2012) 13600 1300 1450 1840 2120 8020 15500 28000 47700 51500
2020-07-22 04:45 9.24 20700 51500 (2019) 1280 (2012) 13600 1300 1450 1840 2120 8020 15500 28000 47700 51500
2020-07-22 03:45 9.14 20400 51500 (2019) 1280 (2012) 13600 1300 1450 1840 2120 8020 15500 28000 47700 51500
2020-07-22 02:45 8.91 19400 51500 (2019) 1280 (2012) 13600 1300 1450 1840 2120 8020 15500 28000 47700 51500
2020-07-22 01:45 8.54 18000 51500 (2019) 1280 (2012) 13600 1300 1450 1840 2120 8020 15500 28000 47700 51500
2020-07-22 00:45 8.00 16100 51500 (2019) 1280 (2012) 13600 1300 1450 1840 2120 8020 15500 28000 47700 51500
2020-07-21 23:45 7.32 13900 51400 (2007) 1140 (2014) 15200 1170 1480 2090 2710 11200 17200 26900 50700 51300
2020-07-21 22:45 6.53 11500 51400 (2007) 1140 (2014) 15200 1170 1480 2090 2710 11200 17200 26900 50700 51300
2020-07-21 21:45 5.68 9070 51400 (2007) 1140 (2014) 15200 1170 1480 2090 2710 11200 17200 26900 50700 51300
2020-07-21 20:45 4.87 6890 51400 (2007) 1140 (2014) 15200 1170 1480 2090 2710 11200 17200 26900 50700 51300
2020-07-21 19:45 4.32 5430 51400 (2007) 1140 (2014) 15200 1170 1480 2090 2710 11200 17200 26900 50700 51300
2020-07-21 18:45 4.08 4810 51400 (2007) 1140 (2014) 15200 1170 1480 2090 2710 11200 17200 26900 50700 51300
2020-07-21 17:45 4.06 4760 51400 (2007) 1140 (2014) 15200 1170 1480 2090 2710 11200 17200 26900 50700 51300
2020-07-21 16:45 4.14 4970 51400 (2007) 1140 (2014) 15200 1170 1480 2090 2710 11200 17200 26900 50700 51300
2020-07-21 15:45 4.26 5280 51400 (2007) 1140 (2014) 15200 1170 1480 2090 2710 11200 17200 26900 50700 51300
2020-07-21 14:45 4.40 5640 51400 (2007) 1140 (2014) 15200 1170 1480 2090 2710 11200 17200 26900 50700 51300
2020-07-21 13:45 4.53 5990 51400 (2007) 1140 (2014) 15200 1170 1480 2090 2710 11200 17200 26900 50700 51300
2020-07-21 12:45 4.67 6350 51400 (2007) 1140 (2014) 15200 1170 1480 2090 2710 11200 17200 26900 50700 51300
2020-07-21 11:45 4.81 6730 51400 (2007) 1140 (2014) 15200 1170 1480 2090 2710 11200 17200 26900 50700 51300
2020-07-21 10:45 4.94 7060 51400 (2007) 1140 (2014) 15200 1170 1480 2090 2710 11200 17200 26900 50700 51300
2020-07-21 09:45 5.04 7320 51400 (2007) 1140 (2014) 15200 1170 1480 2090 2710 11200 17200 26900 50700 51300
2020-07-21 08:45 5.14 7590 51400 (2007) 1140 (2014) 15200 1170 1480 2090 2710 11200 17200 26900 50700 51300
2020-07-21 07:45 5.22 7810 51400 (2007) 1140 (2014) 15200 1170 1480 2090 2710 11200 17200 26900 50700 51300
2020-07-21 06:45 5.26 7920 51400 (2007) 1140 (2014) 15200 1170 1480 2090 2710 11200 17200 26900 50700 51300
2020-07-21 05:45 5.24 7860 51400 (2007) 1140 (2014) 15200 1170 1480 2090 2710 11200 17200 26900 50700 51300
2020-07-21 04:45 5.18 7700 51400 (2007) 1140 (2014) 15200 1170 1480 2090 2710 11200 17200 26900 50700 51300
2020-07-21 03:45 5.03 7300 51400 (2007) 1140 (2014) 15200 1170 1480 2090 2710 11200 17200 26900 50700 51300
2020-07-21 02:45 4.79 6680 51400 (2007) 1140 (2014) 15200 1170 1480 2090 2710 11200 17200 26900 50700 51300
2020-07-21 01:45 4.41 5670 51400 (2007) 1140 (2014) 15200 1170 1480 2090 2710 11200 17200 26900 50700 51300
2020-07-21 00:45 3.90 4350 51400 (2007) 1140 (2014) 15200 1170 1480 2090 2710 11200 17200 26900 50700 51300
2020-07-20 23:45 3.37 3030 53000 (2015) 1240 (2014) 15400 1330 1830 2140 2590 9680 18600 31500 51500 52800
2020-07-20 22:45 3.06 2340 53000 (2015) 1240 (2014) 15400 1330 1830 2140 2590 9680 18600 31500 51500 52800
2020-07-20 21:45 2.94 2110 53000 (2015) 1240 (2014) 15400 1330 1830 2140 2590 9680 18600 31500 51500 52800
2020-07-20 20:45 2.91 2050 53000 (2015) 1240 (2014) 15400 1330 1830 2140 2590 9680 18600 31500 51500 52800
2020-07-20 19:45 2.91 2050 53000 (2015) 1240 (2014) 15400 1330 1830 2140 2590 9680 18600 31500 51500 52800
2020-07-20 18:45 2.91 2050 53000 (2015) 1240 (2014) 15400 1330 1830 2140 2590 9680 18600 31500 51500 52800
2020-07-20 17:45 2.91 2050 53000 (2015) 1240 (2014) 15400 1330 1830 2140 2590 9680 18600 31500 51500 52800
2020-07-20 16:45 2.91 2050 53000 (2015) 1240 (2014) 15400 1330 1830 2140 2590 9680 18600 31500 51500 52800
2020-07-20 15:45 2.91 2050 53000 (2015) 1240 (2014) 15400 1330 1830 2140 2590 9680 18600 31500 51500 52800
2020-07-20 14:45 2.91 2050 53000 (2015) 1240 (2014) 15400 1330 1830 2140 2590 9680 18600 31500 51500 52800
2020-07-20 13:45 2.91 2050 53000 (2015) 1240 (2014) 15400 1330 1830 2140 2590 9680 18600 31500 51500 52800
2020-07-20 12:45 2.92 2070 53000 (2015) 1240 (2014) 15400 1330 1830 2140 2590 9680 18600 31500 51500 52800
2020-07-20 11:45 2.92 2070 53000 (2015) 1240 (2014) 15400 1330 1830 2140 2590 9680 18600 31500 51500 52800
2020-07-20 10:45 2.92 2070 53000 (2015) 1240 (2014) 15400 1330 1830 2140 2590 9680 18600 31500 51500 52800
2020-07-20 09:45 2.92 2070 53000 (2015) 1240 (2014) 15400 1330 1830 2140 2590 9680 18600 31500 51500 52800
2020-07-20 08:45 2.93 2090 53000 (2015) 1240 (2014) 15400 1330 1830 2140 2590 9680 18600 31500 51500 52800
2020-07-20 07:45 2.93 2090 53000 (2015) 1240 (2014) 15400 1330 1830 2140 2590 9680 18600 31500 51500 52800
2020-07-20 06:45 2.91 2050 53000 (2015) 1240 (2014) 15400 1330 1830 2140 2590 9680 18600 31500 51500 52800
2020-07-20 05:45 2.91 2050 53000 (2015) 1240 (2014) 15400 1330 1830 2140 2590 9680 18600 31500 51500 52800
2020-07-20 04:45 2.91 2050 53000 (2015) 1240 (2014) 15400 1330 1830 2140 2590 9680 18600 31500 51500 52800
2020-07-20 03:45 2.90 2030 53000 (2015) 1240 (2014) 15400 1330 1830 2140 2590 9680 18600 31500 51500 52800
2020-07-20 02:45 2.90 2030 53000 (2015) 1240 (2014) 15400 1330 1830 2140 2590 9680 18600 31500 51500 52800
2020-07-20 01:45 2.90 2030 53000 (2015) 1240 (2014) 15400 1330 1830 2140 2590 9680 18600 31500 51500 52800
2020-07-20 00:45 2.91 2050 53000 (2015) 1240 (2014) 15400 1330 1830 2140 2590 9680 18600 31500 51500 52800
2020-07-19 23:45 2.91 2050 52100 (2007) 1360 (1998) 15100 1360 1390 1870 2220 6900 22200 30600 50500 51900
2020-07-19 22:45 2.91 2050 52100 (2007) 1360 (1998) 15100 1360 1390 1870 2220 6900 22200 30600 50500 51900
2020-07-19 21:45 2.91 2050 52100 (2007) 1360 (1998) 15100 1360 1390 1870 2220 6900 22200 30600 50500 51900
2020-07-19 20:45 2.91 2050 52100 (2007) 1360 (1998) 15100 1360 1390 1870 2220 6900 22200 30600 50500 51900
2020-07-19 19:45 2.91 2050 52100 (2007) 1360 (1998) 15100 1360 1390 1870 2220 6900 22200 30600 50500 51900
2020-07-19 18:45 2.92 2070 52100 (2007) 1360 (1998) 15100 1360 1390 1870 2220 6900 22200 30600 50500 51900
2020-07-19 17:45 2.93 2090 52100 (2007) 1360 (1998) 15100 1360 1390 1870 2220 6900 22200 30600 50500 51900
2020-07-19 16:45 2.97 2160 52100 (2007) 1360 (1998) 15100 1360 1390 1870 2220 6900 22200 30600 50500 51900
2020-07-19 15:45 2.96 2140 52100 (2007) 1360 (1998) 15100 1360 1390 1870 2220 6900 22200 30600 50500 51900
2020-07-19 14:45 2.98 2180 52100 (2007) 1360 (1998) 15100 1360 1390 1870 2220 6900 22200 30600 50500 51900
2020-07-19 13:45 2.99 2200 52100 (2007) 1360 (1998) 15100 1360 1390 1870 2220 6900 22200 30600 50500 51900
2020-07-19 12:45 3.01 2240 52100 (2007) 1360 (1998) 15100 1360 1390 1870 2220 6900 22200 30600 50500 51900
2020-07-19 11:45 3.03 2280 52100 (2007) 1360 (1998) 15100 1360 1390 1870 2220 6900 22200 30600 50500 51900
2020-07-19 10:45 3.06 2340 52100 (2007) 1360 (1998) 15100 1360 1390 1870 2220 6900 22200 30600 50500 51900
2020-07-19 09:45 3.08 2380 52100 (2007) 1360 (1998) 15100 1360 1390 1870 2220 6900 22200 30600 50500 51900
2020-07-19 08:45 3.11 2440 52100 (2007) 1360 (1998) 15100 1360 1390 1870 2220 6900 22200 30600 50500 51900
2020-07-19 07:45 3.13 2480 52100 (2007) 1360 (1998) 15100 1360 1390 1870 2220 6900 22200 30600 50500 51900
2020-07-19 06:45 3.17 2570 52100 (2007) 1360 (1998) 15100 1360 1390 1870 2220 6900 22200 30600 50500 51900
2020-07-19 05:45 3.20 2630 52100 (2007) 1360 (1998) 15100 1360 1390 1870 2220 6900 22200 30600 50500 51900
2020-07-19 04:45 3.25 2740 52100 (2007) 1360 (1998) 15100 1360 1390 1870 2220 6900 22200 30600 50500 51900
2020-07-19 03:45 3.31 2880 52100 (2007) 1360 (1998) 15100 1360 1390 1870 2220 6900 22200 30600 50500 51900
2020-07-19 02:45 3.36 3000 52100 (2007) 1360 (1998) 15100 1360 1390 1870 2220 6900 22200 30600 50500 51900
2020-07-19 01:45 3.42 3150 52100 (2007) 1360 (1998) 15100 1360 1390 1870 2220 6900 22200 30600 50500 51900
2020-07-19 00:45 3.49 3330 52100 (2007) 1360 (1998) 15100 1360 1390 1870 2220 6900 22200 30600 50500 51900
2020-07-18 23:45 3.56 3510 52000 (2007) 1300 (2012) 16200 1360 1730 2380 2670 6310 29200 35600 50100 51800
2020-07-18 22:45 3.64 3700 52000 (2007) 1300 (2012) 16200 1360 1730 2380 2670 6310 29200 35600 50100 51800
2020-07-18 21:45 3.73 3930 52000 (2007) 1300 (2012) 16200 1360 1730 2380 2670 6310 29200 35600 50100 51800
2020-07-18 20:45 3.83 4180 52000 (2007) 1300 (2012) 16200 1360 1730 2380 2670 6310 29200 35600 50100 51800
2020-07-18 19:45 3.94 4450 52000 (2007) 1300 (2012) 16200 1360 1730 2380 2670 6310 29200 35600 50100 51800
2020-07-18 18:45 4.06 4760 52000 (2007) 1300 (2012) 16200 1360 1730 2380 2670 6310 29200 35600 50100 51800
2020-07-18 17:45 4.19 5100 52000 (2007) 1300 (2012) 16200 1360 1730 2380 2670 6310 29200 35600 50100 51800
2020-07-18 16:45 4.32 5430 52000 (2007) 1300 (2012) 16200 1360 1730 2380 2670 6310 29200 35600 50100 51800
2020-07-18 15:45 4.46 5800 52000 (2007) 1300 (2012) 16200 1360 1730 2380 2670 6310 29200 35600 50100 51800
2020-07-18 14:45 4.61 6200 52000 (2007) 1300 (2012) 16200 1360 1730 2380 2670 6310 29200 35600 50100 51800
2020-07-18 13:45 4.76 6600 52000 (2007) 1300 (2012) 16200 1360 1730 2380 2670 6310 29200 35600 50100 51800
2020-07-18 12:45 4.92 7010 52000 (2007) 1300 (2012) 16200 1360 1730 2380 2670 6310 29200 35600 50100 51800
2020-07-18 11:45 5.06 7380 52000 (2007) 1300 (2012) 16200 1360 1730 2380 2670 6310 29200 35600 50100 51800
2020-07-18 10:45 5.21 7780 52000 (2007) 1300 (2012) 16200 1360 1730 2380 2670 6310 29200 35600 50100 51800
2020-07-18 09:45 5.34 8140 52000 (2007) 1300 (2012) 16200 1360 1730 2380 2670 6310 29200 35600 50100 51800
2020-07-18 08:45 5.46 8480 52000 (2007) 1300 (2012) 16200 1360 1730 2380 2670 6310 29200 35600 50100 51800
2020-07-18 07:45 5.55 8720 52000 (2007) 1300 (2012) 16200 1360 1730 2380 2670 6310 29200 35600 50100 51800
2020-07-18 06:45 5.61 8880 52000 (2007) 1300 (2012) 16200 1360 1730 2380 2670 6310 29200 35600 50100 51800
2020-07-18 05:45 5.62 8910 52000 (2007) 1300 (2012) 16200 1360 1730 2380 2670 6310 29200 35600 50100 51800
2020-07-18 04:45 5.58 8800 52000 (2007) 1300 (2012) 16200 1360 1730 2380 2670 6310 29200 35600 50100 51800
2020-07-18 03:45 5.45 8450 52000 (2007) 1300 (2012) 16200 1360 1730 2380 2670 6310 29200 35600 50100 51800
2020-07-18 02:45 5.23 7830 52000 (2007) 1300 (2012) 16200 1360 1730 2380 2670 6310 29200 35600 50100 51800
2020-07-18 01:45 4.90 6960 52000 (2007) 1300 (2012) 16200 1360 1730 2380 2670 6310 29200 35600 50100 51800
2020-07-18 00:45 4.51 5940 52000 (2007) 1300 (2012) 16200 1360 1730 2380 2670 6310 29200 35600 50100 51800
2020-07-17 23:45 4.15 5000 51900 (2007) 1090 (2000) 15600 1090 1230 1930 2940 4820 28900 40100 50100 51700
2020-07-17 22:45 3.98 4550 51900 (2007) 1090 (2000) 15600 1090 1230 1930 2940 4820 28900 40100 50100 51700
2020-07-17 21:45 3.99 4580 51900 (2007) 1090 (2000) 15600 1090 1230 1930 2940 4820 28900 40100 50100 51700
2020-07-17 20:45 4.08 4810 51900 (2007) 1090 (2000) 15600 1090 1230 1930 2940 4820 28900 40100 50100 51700
2020-07-17 19:45 4.19 5100 51900 (2007) 1090 (2000) 15600 1090 1230 1930 2940 4820 28900 40100 50100 51700
2020-07-17 18:45 4.30 5380 51900 (2007) 1090 (2000) 15600 1090 1230 1930 2940 4820 28900 40100 50100 51700
2020-07-17 17:45 4.43 5720 51900 (2007) 1090 (2000) 15600 1090 1230 1930 2940 4820 28900 40100 50100 51700
2020-07-17 16:45 4.57 6090 51900 (2007) 1090 (2000) 15600 1090 1230 1930 2940 4820 28900 40100 50100 51700
2020-07-17 15:45 4.71 6460 51900 (2007) 1090 (2000) 15600 1090 1230 1930 2940 4820 28900 40100 50100 51700
2020-07-17 14:45 4.86 6860 51900 (2007) 1090 (2000) 15600 1090 1230 1930 2940 4820 28900 40100 50100 51700
2020-07-17 13:45 5.01 7250 51900 (2007) 1090 (2000) 15600 1090 1230 1930 2940 4820 28900 40100 50100 51700
2020-07-17 12:45 5.12 7540 51900 (2007) 1090 (2000) 15600 1090 1230 1930 2940 4820 28900 40100 50100 51700
2020-07-17 11:45 5.25 7890 51900 (2007) 1090 (2000) 15600 1090 1230 1930 2940 4820 28900 40100 50100 51700
2020-07-17 10:45 5.36 8200 51900 (2007) 1090 (2000) 15600 1090 1230 1930 2940 4820 28900 40100 50100 51700
2020-07-17 09:45 5.45 8450 51900 (2007) 1090 (2000) 15600 1090 1230 1930 2940 4820 28900 40100 50100 51700
2020-07-17 08:45 5.49 8560 51900 (2007) 1090 (2000) 15600 1090 1230 1930 2940 4820 28900 40100 50100 51700
2020-07-17 07:45 5.49 8560 51900 (2007) 1090 (2000) 15600 1090 1230 1930 2940 4820 28900 40100 50100 51700
2020-07-17 06:45 5.41 8340 51900 (2007) 1090 (2000) 15600 1090 1230 1930 2940 4820 28900 40100 50100 51700
2020-07-17 05:45 5.26 7920 51900 (2007) 1090 (2000) 15600 1090 1230 1930 2940 4820 28900 40100 50100 51700
2020-07-17 04:45 4.99 7190 51900 (2007) 1090 (2000) 15600 1090 1230 1930 2940 4820 28900 40100 50100 51700
2020-07-17 03:45 4.59 6140 51900 (2007) 1090 (2000) 15600 1090 1230 1930 2940 4820 28900 40100 50100 51700
2020-07-17 02:45 3.97 4530 51900 (2007) 1090 (2000) 15600 1090 1230 1930 2940 4820 28900 40100 50100 51700
2020-07-17 01:45 3.29 2830 51900 (2007) 1090 (2000) 15600 1090 1230 1930 2940 4820 28900 40100 50100 51700
2020-07-17 00:45 2.90 2030 51900 (2007) 1090 (2000) 15600 1090 1230 1930 2940 4820 28900 40100 50100 51700
2020-07-16 23:45 2.79 1840 52000 (2007) 1190 (2018) 17200 1250 1650 2570 3030 8750 33900 40200 50300 51800
2020-07-16 22:45 2.78 1820 52000 (2007) 1190 (2018) 17200 1250 1650 2570 3030 8750 33900 40200 50300 51800
2020-07-16 21:45 2.78 1820 52000 (2007) 1190 (2018) 17200 1250 1650 2570 3030 8750 33900 40200 50300 51800
2020-07-16 20:45 2.78 1820 52000 (2007) 1190 (2018) 17200 1250 1650 2570 3030 8750 33900 40200 50300 51800
2020-07-16 19:45 2.78 1820 52000 (2007) 1190 (2018) 17200 1250 1650 2570 3030 8750 33900 40200 50300 51800
2020-07-16 18:45 2.79 1840 52000 (2007) 1190 (2018) 17200 1250 1650 2570 3030 8750 33900 40200 50300 51800
2020-07-16 17:45 2.79 1840 52000 (2007) 1190 (2018) 17200 1250 1650 2570 3030 8750 33900 40200 50300 51800
2020-07-16 16:45 2.78 1820 52000 (2007) 1190 (2018) 17200 1250 1650 2570 3030 8750 33900 40200 50300 51800
2020-07-16 15:45 2.79 1840 52000 (2007) 1190 (2018) 17200 1250 1650 2570 3030 8750 33900 40200 50300 51800
2020-07-16 14:45 2.80 1860 52000 (2007) 1190 (2018) 17200 1250 1650 2570 3030 8750 33900 40200 50300 51800
2020-07-16 13:45 2.80 1860 52000 (2007) 1190 (2018) 17200 1250 1650 2570 3030 8750 33900 40200 50300 51800
2020-07-16 12:45 2.80 1860 52000 (2007) 1190 (2018) 17200 1250 1650 2570 3030 8750 33900 40200 50300 51800
2020-07-16 11:45 2.80 1860 52000 (2007) 1190 (2018) 17200 1250 1650 2570 3030 8750 33900 40200 50300 51800
2020-07-16 10:45 2.80 1860 52000 (2007) 1190 (2018) 17200 1250 1650 2570 3030 8750 33900 40200 50300 51800
2020-07-16 09:45 2.80 1860 52000 (2007) 1190 (2018) 17200 1250 1650 2570 3030 8750 33900 40200 50300 51800
2020-07-16 08:45 2.80 1860 52000 (2007) 1190 (2018) 17200 1250 1650 2570 3030 8750 33900 40200 50300 51800
2020-07-16 07:45 2.80 1860 52000 (2007) 1190 (2018) 17200 1250 1650 2570 3030 8750 33900 40200 50300 51800
2020-07-16 06:45 2.80 1860 52000 (2007) 1190 (2018) 17200 1250 1650 2570 3030 8750 33900 40200 50300 51800
2020-07-16 05:45 2.80 1860 52000 (2007) 1190 (2018) 17200 1250 1650 2570 3030 8750 33900 40200 50300 51800
2020-07-16 04:45 2.80 1860 52000 (2007) 1190 (2018) 17200 1250 1650 2570 3030 8750 33900 40200 50300 51800
2020-07-16 03:45 2.80 1860 52000 (2007) 1190 (2018) 17200 1250 1650 2570 3030 8750 33900 40200 50300 51800
2020-07-16 02:45 2.80 1860 52000 (2007) 1190 (2018) 17200 1250 1650 2570 3030 8750 33900 40200 50300 51800
2020-07-16 01:45 2.79 1840 52000 (2007) 1190 (2018) 17200 1250 1650 2570 3030 8750 33900 40200 50300 51800
2020-07-16 00:45 2.79 1840 52000 (2007) 1190 (2018) 17200 1250 1650 2570 3030 8750 33900 40200 50300 51800
2020-07-15 23:45 2.79 1840 52100 (2007) 1200 (2012) 17200 1260 1630 2190 2410 6340 33700 41900 50400 51900
2020-07-15 22:45 2.79 1840 52100 (2007) 1200 (2012) 17200 1260 1630 2190 2410 6340 33700 41900 50400 51900
2020-07-15 21:45 2.79 1840 52100 (2007) 1200 (2012) 17200 1260 1630 2190 2410 6340 33700 41900 50400 51900
2020-07-15 20:45 2.78 1820 52100 (2007) 1200 (2012) 17200 1260 1630 2190 2410 6340 33700 41900 50400 51900
2020-07-15 19:45 2.78 1820 52100 (2007) 1200 (2012) 17200 1260 1630 2190 2410 6340 33700 41900 50400 51900
2020-07-15 18:45 2.77 1810 52100 (2007) 1200 (2012) 17200 1260 1630 2190 2410 6340 33700 41900 50400 51900
2020-07-15 17:45 2.78 1820 52100 (2007) 1200 (2012) 17200 1260 1630 2190 2410 6340 33700 41900 50400 51900
2020-07-15 16:45 2.79 1840 52100 (2007) 1200 (2012) 17200 1260 1630 2190 2410 6340 33700 41900 50400 51900
2020-07-15 15:45 2.79 1840 52100 (2007) 1200 (2012) 17200 1260 1630 2190 2410 6340 33700 41900 50400 51900
2020-07-15 14:45 2.78 1820 52100 (2007) 1200 (2012) 17200 1260 1630 2190 2410 6340 33700 41900 50400 51900
2020-07-15 13:45 2.78 1820 52100 (2007) 1200 (2012) 17200 1260 1630 2190 2410 6340 33700 41900 50400 51900
2020-07-15 12:45 2.77 1810 52100 (2007) 1200 (2012) 17200 1260 1630 2190 2410 6340 33700 41900 50400 51900
2020-07-15 11:45 2.77 1810 52100 (2007) 1200 (2012) 17200 1260 1630 2190 2410 6340 33700 41900 50400 51900
2020-07-15 10:45 2.77 1810 52100 (2007) 1200 (2012) 17200 1260 1630 2190 2410 6340 33700 41900 50400 51900
2020-07-15 09:45 2.77 1810 52100 (2007) 1200 (2012) 17200 1260 1630 2190 2410 6340 33700 41900 50400 51900
2020-07-15 08:45 2.76 1790 52100 (2007) 1200 (2012) 17200 1260 1630 2190 2410 6340 33700 41900 50400 51900
2020-07-15 07:45 2.76 1790 52100 (2007) 1200 (2012) 17200 1260 1630 2190 2410 6340 33700 41900 50400 51900
2020-07-15 06:45 2.75 1780 52100 (2007) 1200 (2012) 17200 1260 1630 2190 2410 6340 33700 41900 50400 51900
2020-07-15 05:45 2.75 1780 52100 (2007) 1200 (2012) 17200 1260 1630 2190 2410 6340 33700 41900 50400 51900
2020-07-15 04:45 2.75 1780 52100 (2007) 1200 (2012) 17200 1260 1630 2190 2410 6340 33700 41900 50400 51900
2020-07-15 03:45 2.75 1780 52100 (2007) 1200 (2012) 17200 1260 1630 2190 2410 6340 33700 41900 50400 51900
2020-07-15 02:45 2.75 1780 52100 (2007) 1200 (2012) 17200 1260 1630 2190 2410 6340 33700 41900 50400 51900
2020-07-15 01:45 2.75 1780 52100 (2007) 1200 (2012) 17200 1260 1630 2190 2410 6340 33700 41900 50400 51900
2020-07-15 00:45 2.75 1780 52100 (2007) 1200 (2012) 17200 1260 1630 2190 2410 6340 33700 41900 50400 51900
2020-07-14 23:45 2.74 1760 51600 (2007) 1190 (2012) 18200 1220 1510 2670 3830 9670 34900 41700 50800 51500
2020-07-14 22:45 2.74 1760 51600 (2007) 1190 (2012) 18200 1220 1510 2670 3830 9670 34900 41700 50800 51500
2020-07-14 21:45 2.74 1760 51600 (2007) 1190 (2012) 18200 1220 1510 2670 3830 9670 34900 41700 50800 51500
2020-07-14 20:45 2.74 1760 51600 (2007) 1190 (2012) 18200 1220 1510 2670 3830 9670 34900 41700 50800 51500
2020-07-14 19:45 2.75 1780 51600 (2007) 1190 (2012) 18200 1220 1510 2670 3830 9670 34900 41700 50800 51500
2020-07-14 18:45 2.75 1780 51600 (2007) 1190 (2012) 18200 1220 1510 2670 3830 9670 34900 41700 50800 51500
2020-07-14 17:45 2.75 1780 51600 (2007) 1190 (2012) 18200 1220 1510 2670 3830 9670 34900 41700 50800 51500
2020-07-14 16:45 2.75 1780 51600 (2007) 1190 (2012) 18200 1220 1510 2670 3830 9670 34900 41700 50800 51500
2020-07-14 15:45 2.76 1790 51600 (2007) 1190 (2012) 18200 1220 1510 2670 3830 9670 34900 41700 50800 51500
2020-07-14 14:45 2.76 1790 51600 (2007) 1190 (2012) 18200 1220 1510 2670 3830 9670 34900 41700 50800 51500
2020-07-14 13:45 2.75 1780 51600 (2007) 1190 (2012) 18200 1220 1510 2670 3830 9670 34900 41700 50800 51500
2020-07-14 12:45 2.76 1790 51600 (2007) 1190 (2012) 18200 1220 1510 2670 3830 9670 34900 41700 50800 51500
2020-07-14 11:45 2.77 1810 51600 (2007) 1190 (2012) 18200 1220 1510 2670 3830 9670 34900 41700 50800 51500
2020-07-14 10:45 2.76 1790 51600 (2007) 1190 (2012) 18200 1220 1510 2670 3830 9670 34900 41700 50800 51500
2020-07-14 09:45 2.77 1810 51600 (2007) 1190 (2012) 18200 1220 1510 2670 3830 9670 34900 41700 50800 51500
2020-07-14 08:45 2.77 1810 51600 (2007) 1190 (2012) 18200 1220 1510 2670 3830 9670 34900 41700 50800 51500
2020-07-14 07:45 2.77 1810 51600 (2007) 1190 (2012) 18200 1220 1510 2670 3830 9670 34900 41700 50800 51500
2020-07-14 06:45 2.77 1810 51600 (2007) 1190 (2012) 18200 1220 1510 2670 3830 9670 34900 41700 50800 51500
2020-07-14 05:45 2.77 1810 51600 (2007) 1190 (2012) 18200 1220 1510 2670 3830 9670 34900 41700 50800 51500
2020-07-14 04:45 2.78 1820 51600 (2007) 1190 (2012) 18200 1220 1510 2670 3830 9670 34900 41700 50800 51500
2020-07-14 03:45 2.79 1840 51600 (2007) 1190 (2012) 18200 1220 1510 2670 3830 9670 34900 41700 50800 51500
2020-07-14 02:45 2.79 1840 51600 (2007) 1190 (2012) 18200 1220 1510 2670 3830 9670 34900 41700 50800 51500
2020-07-14 01:45 2.80 1860 51600 (2007) 1190 (2012) 18200 1220 1510 2670 3830 9670 34900 41700 50800 51500
2020-07-14 00:45 2.81 1880 51600 (2007) 1190 (2012) 18200 1220 1510 2670 3830 9670 34900 41700 50800 51500
2020-07-13 23:45 2.82 1890 51000 (2008) 1190 (2012) 17300 1230 1530 1950 2130 6600 31500 41700 50700 51000
2020-07-13 22:45 2.82 1890 51000 (2008) 1190 (2012) 17300 1230 1530 1950 2130 6600 31500 41700 50700 51000
2020-07-13 21:45 2.84 1930 51000 (2008) 1190 (2012) 17300 1230 1530 1950 2130 6600 31500 41700 50700 51000
2020-07-13 20:45 2.85 1940 51000 (2008) 1190 (2012) 17300 1230 1530 1950 2130 6600 31500 41700 50700 51000
2020-07-13 19:45 2.87 1980 51000 (2008) 1190 (2012) 17300 1230 1530 1950 2130 6600 31500 41700 50700 51000
2020-07-13 18:45 2.88 2000 51000 (2008) 1190 (2012) 17300 1230 1530 1950 2130 6600 31500 41700 50700 51000
2020-07-13 17:45 2.89 2010 51000 (2008) 1190 (2012) 17300 1230 1530 1950 2130 6600 31500 41700 50700 51000
2020-07-13 16:45 2.91 2050 51000 (2008) 1190 (2012) 17300 1230 1530 1950 2130 6600 31500 41700 50700 51000
2020-07-13 15:45 2.92 2070 51000 (2008) 1190 (2012) 17300 1230 1530 1950 2130 6600 31500 41700 50700 51000
2020-07-13 14:45 2.93 2090 51000 (2008) 1190 (2012) 17300 1230 1530 1950 2130 6600 31500 41700 50700 51000
2020-07-13 13:45 2.93 2090 51000 (2008) 1190 (2012) 17300 1230 1530 1950 2130 6600 31500 41700 50700 51000
2020-07-13 12:45 2.93 2090 51000 (2008) 1190 (2012) 17300 1230 1530 1950 2130 6600 31500 41700 50700 51000
2020-07-13 11:45 2.92 2070 51000 (2008) 1190 (2012) 17300 1230 1530 1950 2130 6600 31500 41700 50700 51000
2020-07-13 10:45 2.92 2070 51000 (2008) 1190 (2012) 17300 1230 1530 1950 2130 6600 31500 41700 50700 51000
2020-07-13 09:45 2.91 2050 51000 (2008) 1190 (2012) 17300 1230 1530 1950 2130 6600 31500 41700 50700 51000
2020-07-13 08:45 2.89 2010 51000 (2008) 1190 (2012) 17300 1230 1530 1950 2130 6600 31500 41700 50700 51000
2020-07-13 07:45 2.88 2000 51000 (2008) 1190 (2012) 17300 1230 1530 1950 2130 6600 31500 41700 50700 51000
2020-07-13 06:45 2.86 1960 51000 (2008) 1190 (2012) 17300 1230 1530 1950 2130 6600 31500 41700 50700 51000
2020-07-13 05:45 2.84 1930 51000 (2008) 1190 (2012) 17300 1230 1530 1950 2130 6600 31500 41700 50700 51000
2020-07-13 04:45 2.84 1930 51000 (2008) 1190 (2012) 17300 1230 1530 1950 2130 6600 31500 41700 50700 51000
2020-07-13 03:45 2.83 1910 51000 (2008) 1190 (2012) 17300 1230 1530 1950 2130 6600 31500 41700 50700 51000
2020-07-13 02:45 2.82 1890 51000 (2008) 1190 (2012) 17300 1230 1530 1950 2130 6600 31500 41700 50700 51000
2020-07-13 01:45 2.82 1890 51000 (2008) 1190 (2012) 17300 1230 1530 1950 2130 6600 31500 41700 50700 51000
2020-07-13 00:45 2.81 1880 51000 (2008) 1190 (2012) 17300 1230 1530 1950 2130 6600 31500 41700 50700 51000
2020-07-12 23:45 2.81 1880 50700 (2007) 1160 (2018) 16700 1170 1300 2620 3590 6120 27500 41900 50500 50700
2020-07-12 22:45 2.81 1880 50700 (2007) 1160 (2018) 16700 1170 1300 2620 3590 6120 27500 41900 50500 50700
2020-07-12 21:45 2.81 1880 50700 (2007) 1160 (2018) 16700 1170 1300 2620 3590 6120 27500 41900 50500 50700
2020-07-12 20:45 2.82 1890 50700 (2007) 1160 (2018) 16700 1170 1300 2620 3590 6120 27500 41900 50500 50700
2020-07-12 19:45 2.82 1890 50700 (2007) 1160 (2018) 16700 1170 1300 2620 3590 6120 27500 41900 50500 50700
2020-07-12 18:45 2.82 1890 50700 (2007) 1160 (2018) 16700 1170 1300 2620 3590 6120 27500 41900 50500 50700
2020-07-12 17:45 2.82 1890 50700 (2007) 1160 (2018) 16700 1170 1300 2620 3590 6120 27500 41900 50500 50700
2020-07-12 16:45 2.82 1890 50700 (2007) 1160 (2018) 16700 1170 1300 2620 3590 6120 27500 41900 50500 50700
2020-07-12 15:45 2.81 1880 50700 (2007) 1160 (2018) 16700 1170 1300 2620 3590 6120 27500 41900 50500 50700
2020-07-12 14:45 2.82 1890 50700 (2007) 1160 (2018) 16700 1170 1300 2620 3590 6120 27500 41900 50500 50700
2020-07-12 13:45 2.81 1880 50700 (2007) 1160 (2018) 16700 1170 1300 2620 3590 6120 27500 41900 50500 50700
2020-07-12 12:45 2.81 1880 50700 (2007) 1160 (2018) 16700 1170 1300 2620 3590 6120 27500 41900 50500 50700
2020-07-12 11:45 2.81 1880 50700 (2007) 1160 (2018) 16700 1170 1300 2620 3590 6120 27500 41900 50500 50700
2020-07-12 10:45 2.83 1910 50700 (2007) 1160 (2018) 16700 1170 1300 2620 3590 6120 27500 41900 50500 50700
2020-07-12 09:45 2.84 1930 50700 (2007) 1160 (2018) 16700 1170 1300 2620 3590 6120 27500 41900 50500 50700
2020-07-12 08:45 2.84 1930 50700 (2007) 1160 (2018) 16700 1170 1300 2620 3590 6120 27500 41900 50500 50700
2020-07-12 07:45 2.86 1960 50700 (2007) 1160 (2018) 16700 1170 1300 2620 3590 6120 27500 41900 50500 50700
2020-07-12 06:45 2.86 1960 50700 (2007) 1160 (2018) 16700 1170 1300 2620 3590 6120 27500 41900 50500 50700
2020-07-12 05:45 2.87 1980 50700 (2007) 1160 (2018) 16700 1170 1300 2620 3590 6120 27500 41900 50500 50700
2020-07-12 04:45 2.89 2010 50700 (2007) 1160 (2018) 16700 1170 1300 2620 3590 6120 27500 41900 50500 50700
2020-07-12 03:45 2.90 2030 50700 (2007) 1160 (2018) 16700 1170 1300 2620 3590 6120 27500 41900 50500 50700
2020-07-12 02:45 2.92 2070 50700 (2007) 1160 (2018) 16700 1170 1300 2620 3590 6120 27500 41900 50500 50700
2020-07-12 01:45 2.94 2110 50700 (2007) 1160 (2018) 16700 1170 1300 2620 3590 6120 27500 41900 50500 50700
2020-07-12 00:45 2.96 2140 50700 (2007) 1160 (2018) 16700 1170 1300 2620 3590 6120 27500 41900 50500 50700
2020-07-11 23:45 2.98 2180 50600 (2008) 641 (2006) 17600 747 1400 1770 3100 12500 31900 38800 50400 50600
2020-07-11 22:45 2.99 2200 50600 (2008) 641 (2006) 17600 747 1400 1770 3100 12500 31900 38800 50400 50600
2020-07-11 21:45 3.01 2240 50600 (2008) 641 (2006) 17600 747 1400 1770 3100 12500 31900 38800 50400 50600
2020-07-11 20:45 3.03 2280 50600 (2008) 641 (2006) 17600 747 1400 1770 3100 12500 31900 38800 50400 50600
2020-07-11 19:45 3.05 2320 50600 (2008) 641 (2006) 17600 747 1400 1770 3100 12500 31900 38800 50400 50600
2020-07-11 18:45 3.07 2360 50600 (2008) 641 (2006) 17600 747 1400 1770 3100 12500 31900 38800 50400 50600
2020-07-11 17:45 3.08 2380 50600 (2008) 641 (2006) 17600 747 1400 1770 3100 12500 31900 38800 50400 50600
2020-07-11 16:45 3.10 2420 50600 (2008) 641 (2006) 17600 747 1400 1770 3100 12500 31900 38800 50400 50600
2020-07-11 15:45 3.11 2440 50600 (2008) 641 (2006) 17600 747 1400 1770 3100 12500 31900 38800 50400 50600
2020-07-11 14:45 3.13 2480 50600 (2008) 641 (2006) 17600 747 1400 1770 3100 12500 31900 38800 50400 50600
2020-07-11 13:45 3.15 2520 50600 (2008) 641 (2006) 17600 747 1400 1770 3100 12500 31900 38800 50400 50600
2020-07-11 12:45 3.17 2570 50600 (2008) 641 (2006) 17600 747 1400 1770 3100 12500 31900 38800 50400 50600
2020-07-11 11:45 3.19 2610 50600 (2008) 641 (2006) 17600 747 1400 1770 3100 12500 31900 38800 50400 50600
2020-07-11 10:45 3.23 2700 50600 (2008) 641 (2006) 17600 747 1400 1770 3100 12500 31900 38800 50400 50600
2020-07-11 09:45 3.26 2760 50600 (2008) 641 (2006) 17600 747 1400 1770 3100 12500 31900 38800 50400 50600
2020-07-11 08:45 3.31 2880 50600 (2008) 641 (2006) 17600 747 1400 1770 3100 12500 31900 38800 50400 50600
2020-07-11 07:45 3.36 3000 50600 (2008) 641 (2006) 17600 747 1400 1770 3100 12500 31900 38800 50400 50600
2020-07-11 06:45 3.42 3150 50600 (2008) 641 (2006) 17600 747 1400 1770 3100 12500 31900 38800 50400 50600
2020-07-11 05:45 3.49 3330 50600 (2008) 641 (2006) 17600 747 1400 1770 3100 12500 31900 38800 50400 50600
2020-07-11 04:45 3.57 3540 50600 (2008) 641 (2006) 17600 747 1400 1770 3100 12500 31900 38800 50400 50600
2020-07-11 03:45 3.66 3750 50600 (2008) 641 (2006) 17600 747 1400 1770 3100 12500 31900 38800 50400 50600
2020-07-11 02:45 3.75 3980 50600 (2008) 641 (2006) 17600 747 1400 1770 3100 12500 31900 38800 50400 50600
2020-07-11 01:45 3.85 4230 50600 (2008) 641 (2006) 17600 747 1400 1770 3100 12500 31900 38800 50400 50600
2020-07-11 00:45 3.97 4530 50600 (2008) 641 (2006) 17600 747 1400 1770 3100 12500 31900 38800 50400 50600
2020-07-10 23:45 4.10 4870 52400 (2008) 478 (2006) 17700 571 1180 1720 3560 11600 35500 42300 50600 52200
2020-07-10 22:45 4.23 5200 52400 (2008) 478 (2006) 17700 571 1180 1720 3560 11600 35500 42300 50600 52200
2020-07-10 21:45 4.38 5590 52400 (2008) 478 (2006) 17700 571 1180 1720 3560 11600 35500 42300 50600 52200
2020-07-10 20:45 4.54 6020 52400 (2008) 478 (2006) 17700 571 1180 1720 3560 11600 35500 42300 50600 52200
2020-07-10 19:45 4.71 6460 52400 (2008) 478 (2006) 17700 571 1180 1720 3560 11600 35500 42300 50600 52200
2020-07-10 18:45 4.88 6910 52400 (2008) 478 (2006) 17700 571 1180 1720 3560 11600 35500 42300 50600 52200
2020-07-10 17:45 5.06 7380 52400 (2008) 478 (2006) 17700 571 1180 1720 3560 11600 35500 42300 50600 52200
2020-07-10 16:45 5.23 7830 52400 (2008) 478 (2006) 17700 571 1180 1720 3560 11600 35500 42300 50600 52200
2020-07-10 15:45 5.43 8390 52400 (2008) 478 (2006) 17700 571 1180 1720 3560 11600 35500 42300 50600 52200
2020-07-10 14:45 5.61 8880 52400 (2008) 478 (2006) 17700 571 1180 1720 3560 11600 35500 42300 50600 52200
2020-07-10 13:45 5.77 9320 52400 (2008) 478 (2006) 17700 571 1180 1720 3560 11600 35500 42300 50600 52200
2020-07-10 12:45 5.92 9720 52400 (2008) 478 (2006) 17700 571 1180 1720 3560 11600 35500 42300 50600 52200
2020-07-10 11:45 6.05 10100 52400 (2008) 478 (2006) 17700 571 1180 1720 3560 11600 35500 42300 50600 52200
2020-07-10 10:45 6.13 10300 52400 (2008) 478 (2006) 17700 571 1180 1720 3560 11600 35500 42300 50600 52200
2020-07-10 09:45 6.16 10400 52400 (2008) 478 (2006) 17700 571 1180 1720 3560 11600 35500 42300 50600 52200
2020-07-10 08:45 6.12 10300 52400 (2008) 478 (2006) 17700 571 1180 1720 3560 11600 35500 42300 50600 52200
2020-07-10 07:45 5.99 9910 52400 (2008) 478 (2006) 17700 571 1180 1720 3560 11600 35500 42300 50600 52200
2020-07-10 06:45 5.75 9260 52400 (2008) 478 (2006) 17700 571 1180 1720 3560 11600 35500 42300 50600 52200
2020-07-10 05:45 5.37 8220 52400 (2008) 478 (2006) 17700 571 1180 1720 3560 11600 35500 42300 50600 52200
2020-07-10 04:45 4.87 6890 52400 (2008) 478 (2006) 17700 571 1180 1720 3560 11600 35500 42300 50600 52200
2020-07-10 03:45 4.41 5670 52400 (2008) 478 (2006) 17700 571 1180 1720 3560 11600 35500 42300 50600 52200
2020-07-10 02:45 4.18 5070 52400 (2008) 478 (2006) 17700 571 1180 1720 3560 11600 35500 42300 50600 52200
2020-07-10 01:45 4.22 5180 52400 (2008) 478 (2006) 17700 571 1180 1720 3560 11600 35500 42300 50600 52200
2020-07-10 00:45 4.35 5510 52400 (2008) 478 (2006) 17700 571 1180 1720 3560 11600 35500 42300 50600 52200
2020-07-09 23:45 4.49 5890 51900 (2008) 467 (2006) 19000 562 1200 3380 6130 10800 33500 44800 50700 51800
2020-07-09 22:45 4.66 6330 51900 (2008) 467 (2006) 19000 562 1200 3380 6130 10800 33500 44800 50700 51800
2020-07-09 21:45 4.82 6760 51900 (2008) 467 (2006) 19000 562 1200 3380 6130 10800 33500 44800 50700 51800
2020-07-09 20:45 4.99 7190 51900 (2008) 467 (2006) 19000 562 1200 3380 6130 10800 33500 44800 50700 51800
2020-07-09 19:45 5.18 7700 51900 (2008) 467 (2006) 19000 562 1200 3380 6130 10800 33500 44800 50700 51800
2020-07-09 18:45 5.36 8200 51900 (2008) 467 (2006) 19000 562 1200 3380 6130 10800 33500 44800 50700 51800
2020-07-09 17:45 5.54 8690 51900 (2008) 467 (2006) 19000 562 1200 3380 6130 10800 33500 44800 50700 51800
2020-07-09 16:45 5.72 9180 51900 (2008) 467 (2006) 19000 562 1200 3380 6130 10800 33500 44800 50700 51800
2020-07-09 15:45 5.90 9670 51900 (2008) 467 (2006) 19000 562 1200 3380 6130 10800 33500 44800 50700 51800
2020-07-09 14:45 6.05 10100 51900 (2008) 467 (2006) 19000 562 1200 3380 6130 10800 33500 44800 50700 51800
2020-07-09 13:45 6.19 10500 51900 (2008) 467 (2006) 19000 562 1200 3380 6130 10800 33500 44800 50700 51800
2020-07-09 12:45 6.30 10800 51900 (2008) 467 (2006) 19000 562 1200 3380 6130 10800 33500 44800 50700 51800
2020-07-09 11:45 6.37 11000 51900 (2008) 467 (2006) 19000 562 1200 3380 6130 10800 33500 44800 50700 51800
2020-07-09 10:45 6.39 11000 51900 (2008) 467 (2006) 19000 562 1200 3380 6130 10800 33500 44800 50700 51800
2020-07-09 09:45 6.36 11000 51900 (2008) 467 (2006) 19000 562 1200 3380 6130 10800 33500 44800 50700 51800
2020-07-09 08:45 6.22 10600 51900 (2008) 467 (2006) 19000 562 1200 3380 6130 10800 33500 44800 50700 51800
2020-07-09 07:45 5.97 9860 51900 (2008) 467 (2006) 19000 562 1200 3380 6130 10800 33500 44800 50700 51800
2020-07-09 06:45 5.57 8770 51900 (2008) 467 (2006) 19000 562 1200 3380 6130 10800 33500 44800 50700 51800
2020-07-09 05:45 4.97 7140 51900 (2008) 467 (2006) 19000 562 1200 3380 6130 10800 33500 44800 50700 51800
2020-07-09 04:45 4.25 5250 51900 (2008) 467 (2006) 19000 562 1200 3380 6130 10800 33500 44800 50700 51800
2020-07-09 03:45 3.74 3950 51900 (2008) 467 (2006) 19000 562 1200 3380 6130 10800 33500 44800 50700 51800
2020-07-09 02:45 3.65 3730 51900 (2008) 467 (2006) 19000 562 1200 3380 6130 10800 33500 44800 50700 51800
2020-07-09 01:45 3.71 3880 51900 (2008) 467 (2006) 19000 562 1200 3380 6130 10800 33500 44800 50700 51800
2020-07-09 00:45 3.80 4110 51900 (2008) 467 (2006) 19000 562 1200 3380 6130 10800 33500 44800 50700 51800
2020-07-08 23:45 3.90 4350 55900 (2015) 476 (2006) 18900 565 1080 2430 3350 14200 32600 42000 50700 55200
2020-07-08 22:45 4.01 4630 55900 (2015) 476 (2006) 18900 565 1080 2430 3350 14200 32600 42000 50700 55200
2020-07-08 21:45 4.14 4970 55900 (2015) 476 (2006) 18900 565 1080 2430 3350 14200 32600 42000 50700 55200
2020-07-08 20:45 4.28 5330 55900 (2015) 476 (2006) 18900 565 1080 2430 3350 14200 32600 42000 50700 55200
2020-07-08 19:45 4.43 5720 55900 (2015) 476 (2006) 18900 565 1080 2430 3350 14200 32600 42000 50700 55200
2020-07-08 18:45 4.59 6140 55900 (2015) 476 (2006) 18900 565 1080 2430 3350 14200 32600 42000 50700 55200
2020-07-08 17:45 4.76 6600 55900 (2015) 476 (2006) 18900 565 1080 2430 3350 14200 32600 42000 50700 55200
2020-07-08 16:45 4.95 7090 55900 (2015) 476 (2006) 18900 565 1080 2430 3350 14200 32600 42000 50700 55200
2020-07-08 15:45 5.14 7590 55900 (2015) 476 (2006) 18900 565 1080 2430 3350 14200 32600 42000 50700 55200
2020-07-08 14:45 5.33 8110 55900 (2015) 476 (2006) 18900 565 1080 2430 3350 14200 32600 42000 50700 55200
2020-07-08 13:45 5.53 8670 55900 (2015) 476 (2006) 18900 565 1080 2430 3350 14200 32600 42000 50700 55200
2020-07-08 12:45 5.72 9180 55900 (2015) 476 (2006) 18900 565 1080 2430 3350 14200 32600 42000 50700 55200
2020-07-08 11:45 5.91 9700 55900 (2015) 476 (2006) 18900 565 1080 2430 3350 14200 32600 42000 50700 55200
2020-07-08 10:45 6.10 10200 55900 (2015) 476 (2006) 18900 565 1080 2430 3350 14200 32600 42000 50700 55200
2020-07-08 09:45 6.29 10800 55900 (2015) 476 (2006) 18900 565 1080 2430 3350 14200 32600 42000 50700 55200
2020-07-08 08:45 6.43 11200 55900 (2015) 476 (2006) 18900 565 1080 2430 3350 14200 32600 42000 50700 55200
2020-07-08 07:45 6.56 11500 55900 (2015) 476 (2006) 18900 565 1080 2430 3350 14200 32600 42000 50700 55200
2020-07-08 06:45 6.66 11800 55900 (2015) 476 (2006) 18900 565 1080 2430 3350 14200 32600 42000 50700 55200
2020-07-08 05:45 6.72 12000 55900 (2015) 476 (2006) 18900 565 1080 2430 3350 14200 32600 42000 50700 55200
2020-07-08 04:45 6.73 12000 55900 (2015) 476 (2006) 18900 565 1080 2430 3350 14200 32600 42000 50700 55200
2020-07-08 03:45 6.68 11900 55900 (2015) 476 (2006) 18900 565 1080 2430 3350 14200 32600 42000 50700 55200
2020-07-08 02:45 6.53 11500 55900 (2015) 476 (2006) 18900 565 1080 2430 3350 14200 32600 42000 50700 55200
2020-07-08 01:45 6.30 10800 55900 (2015) 476 (2006) 18900 565 1080 2430 3350 14200 32600 42000 50700 55200
2020-07-08 00:45 5.97 9860 55900 (2015) 476 (2006) 18900 565 1080 2430 3350 14200 32600 42000 50700 55200

A total of 733 rows are displayed for years 1997 through 2019.